Wetterdaten: Donnerstag, 01.12.2016
Datum Zeit Temp. A. Feuchte A. Luftdruck Regen Wind Richtung Richtung Sonnenschein ET UV Solar Taupunkt Windchill Windben Empfang
01.12.2016 00:00 3,0 C 70 % 1029,1 hPa 0,0 l/m 10,2 km/h (2 Bft) W 273 0 min 0,000 mm 0,0 UV-I 0 W/m -1,9 C -0,3 C 16,1 km/h (3 Bft) 100,00 %
01.12.2016 00:02 3,0 C 70 % 1029,0 hPa 0,0 l/m 11,3 km/h (2 Bft) W-NW 298 0 min 0,000 mm 0,0 UV-I 0 W/m -1,9 C -1,1 C 14,5 km/h (3 Bft) 97,67 %
01.12.2016 00:04 3,0 C 69 % 1029,0 hPa 0,0 l/m 11,5 km/h (2 Bft) SW 236 0 min 0,000 mm 0,0 UV-I 0 W/m -2,1 C -1,2 C 20,9 km/h (4 Bft) 100,00 %
01.12.2016 00:06 3,0 C 69 % 1029,0 hPa 0,0 l/m 11,1 km/h (2 Bft) W-SW 246 0 min 0,000 mm 0,0 UV-I 0 W/m -2,1 C -0,9 C 16,1 km/h (3 Bft) 100,00 %
01.12.2016 00:08 3,0 C 70 % 1029,0 hPa 0,0 l/m 13,3 km/h (3 Bft) W 273 0 min 0,000 mm 0,0 UV-I 0 W/m -1,9 C -2,4 C 22,5 km/h (4 Bft) 100,00 %
01.12.2016 00:10 2,9 C 69 % 1029,0 hPa 0,0 l/m 15,0 km/h (3 Bft) W 274 0 min 0,000 mm 0,0 UV-I 0 W/m -2,2 C -3,5 C 25,7 km/h (4 Bft) 100,00 %
01.12.2016 00:12 2,9 C 69 % 1029,0 hPa 0,0 l/m 11,1 km/h (2 Bft) W 267 0 min 0,000 mm 0,0 UV-I 0 W/m -2,2 C -1,0 C 22,5 km/h (4 Bft) 100,00 %
01.12.2016 00:14 3,0 C 69 % 1029,1 hPa 0,0 l/m 16,9 km/h (3 Bft) W 276 0 min 0,000 mm 0,0 UV-I 0 W/m -2,1 C -4,3 C 22,5 km/h (4 Bft) 100,00 %
01.12.2016 00:16 3,0 C 69 % 1029,1 hPa 0,0 l/m 10,7 km/h (2 Bft) W-SW 252 0 min 0,000 mm 0,0 UV-I 0 W/m -2,1 C -0,7 C 24,1 km/h (4 Bft) 98,21 %
01.12.2016 00:18 3,1 C 69 % 1029,1 hPa 0,0 l/m 12,1 km/h (2 Bft) W-SW 252 0 min 0,000 mm 0,0 UV-I 0 W/m -2,0 C -1,5 C 19,3 km/h (3 Bft) 97,73 %
01.12.2016 00:20 3,1 C 68 % 1029,1 hPa 0,0 l/m 14,6 km/h (3 Bft) W-NW 289 0 min 0,000 mm 0,0 UV-I 0 W/m -2,2 C -3,0 C 20,9 km/h (4 Bft) 100,00 %
01.12.2016 00:22 3,0 C 68 % 1029,1 hPa 0,0 l/m 11,5 km/h (2 Bft) W 267 0 min 0,000 mm 0,0 UV-I 0 W/m -2,3 C -1,2 C 19,3 km/h (3 Bft) 97,56 %
01.12.2016 00:24 3,0 C 68 % 1029,0 hPa 0,0 l/m 14,0 km/h (3 Bft) W-SW 253 0 min 0,000 mm 0,0 UV-I 0 W/m -2,3 C -2,8 C 24,1 km/h (4 Bft) 100,00 %
01.12.2016 00:26 3,1 C 67 % 1029,0 hPa 0,0 l/m 11,9 km/h (2 Bft) W-SW 246 0 min 0,000 mm 0,0 UV-I 0 W/m -2,4 C -1,4 C 19,3 km/h (3 Bft) 100,00 %
01.12.2016 00:28 3,1 C 67 % 1029,0 hPa 0,0 l/m 14,0 km/h (3 Bft) W-SW 254 0 min 0,000 mm 0,0 UV-I 0 W/m -2,4 C -2,7 C 19,3 km/h (3 Bft) 96,23 %
01.12.2016 00:30 3,1 C 67 % 1028,9 hPa 0,0 l/m 14,3 km/h (3 Bft) W-SW 249 0 min 0,000 mm 0,0 UV-I 0 W/m -2,4 C -2,8 C 22,5 km/h (4 Bft) 100,00 %
01.12.2016 00:32 3,0 C 67 % 1028,9 hPa 0,0 l/m 12,0 km/h (2 Bft) SW 225 0 min 0,000 mm 0,0 UV-I 0 W/m -2,5 C -1,5 C 14,5 km/h (3 Bft) 100,00 %
01.12.2016 00:34 3,0 C 67 % 1028,9 hPa 0,0 l/m 12,3 km/h (3 Bft) SW 232 0 min 0,000 mm 0,0 UV-I 0 W/m -2,5 C -1,7 C 19,3 km/h (3 Bft) 100,00 %
01.12.2016 00:36 3,0 C 67 % 1028,9 hPa 0,0 l/m 12,1 km/h (2 Bft) W-SW 257 0 min 0,000 mm 0,0 UV-I 0 W/m -2,5 C -1,6 C 22,5 km/h (4 Bft) 100,00 %
01.12.2016 00:38 3,0 C 66 % 1028,9 hPa 0,0 l/m 11,3 km/h (2 Bft) W 267 0 min 0,000 mm 0,0 UV-I 0 W/m -2,7 C -1,1 C 14,5 km/h (3 Bft) 100,00 %
01.12.2016 00:40 2,9 C 67 % 1028,9 hPa 0,0 l/m 10,3 km/h (2 Bft) W-SW 256 0 min 0,000 mm 0,0 UV-I 0 W/m -2,6 C -0,5 C 14,5 km/h (3 Bft) 97,96 %
01.12.2016 00:42 2,9 C 67 % 1028,9 hPa 0,0 l/m 15,6 km/h (3 Bft) W-SW 245 0 min 0,000 mm 0,0 UV-I 0 W/m -2,6 C -3,8 C 19,3 km/h (3 Bft) 100,00 %
01.12.2016 00:44 2,9 C 66 % 1028,9 hPa 0,0 l/m 14,5 km/h (3 Bft) W-NW 294 0 min 0,000 mm 0,0 UV-I 0 W/m -2,8 C -3,2 C 19,3 km/h (3 Bft) 100,00 %
01.12.2016 00:46 3,0 C 66 % 1028,9 hPa 0,0 l/m 15,8 km/h (3 Bft) W-SW 244 0 min 0,000 mm 0,0 UV-I 0 W/m -2,7 C -3,8 C 24,1 km/h (4 Bft) 100,00 %
01.12.2016 00:48 3,0 C 65 % 1029,0 hPa 0,0 l/m 14,8 km/h (3 Bft) W-SW 256 0 min 0,000 mm 0,0 UV-I 0 W/m -2,9 C -3,2 C 24,1 km/h (4 Bft) 98,11 %
01.12.2016 00:50 3,1 C 65 % 1028,9 hPa 0,0 l/m 16,2 km/h (3 Bft) W-SW 238 0 min 0,000 mm 0,0 UV-I 0 W/m -2,8 C -3,9 C 29,0 km/h (5 Bft) 100,00 %
01.12.2016 00:52 3,1 C 65 % 1029,0 hPa 0,0 l/m 12,3 km/h (3 Bft) W-NW 282 0 min 0,000 mm 0,0 UV-I 0 W/m -2,8 C -1,6 C 17,7 km/h (3 Bft) 100,00 %
01.12.2016 00:54 3,1 C 65 % 1029,0 hPa 0,0 l/m 13,3 km/h (3 Bft) W-SW 249 0 min 0,000 mm 0,0 UV-I 0 W/m -2,8 C -2,2 C 19,3 km/h (3 Bft) 94,74 %
01.12.2016 00:56 3,1 C 65 % 1028,9 hPa 0,0 l/m 12,5 km/h (3 Bft) W 261 0 min 0,000 mm 0,0 UV-I 0 W/m -2,8 C -1,8 C 16,1 km/h (3 Bft) 100,00 %
01.12.2016 00:58 3,1 C 66 % 1029,0 hPa 0,0 l/m 12,9 km/h (3 Bft) W 267 0 min 0,000 mm 0,0 UV-I 0 W/m -2,6 C -2,0 C 19,3 km/h (3 Bft) 96,15 %
01.12.2016 01:00 3,0 C 66 % 1029,0 hPa 0,0 l/m 10,9 km/h (2 Bft) W 273 0 min 0,025 mm 0,0 UV-I 0 W/m -2,7 C -0,8 C 17,7 km/h (3 Bft) 100,00 %
01.12.2016 01:02 3,1 C 65 % 1029,1 hPa 0,0 l/m 13,7 km/h (3 Bft) W-NW 289 0 min 0,000 mm 0,0 UV-I 0 W/m -2,8 C -2,5 C 24,1 km/h (4 Bft) 100,00 %
01.12.2016 01:04 3,1 C 66 % 1029,1 hPa 0,0 l/m 10,9 km/h (2 Bft) W-SW 242 0 min 0,000 mm 0,0 UV-I 0 W/m -2,6 C -0,7 C 22,5 km/h (4 Bft) 96,23 %
01.12.2016 01:06 3,1 C 66 % 1029,2 hPa 0,0 l/m 10,5 km/h (2 Bft) W-NW 291 0 min 0,000 mm 0,0 UV-I 0 W/m -2,6 C -0,4 C 20,9 km/h (4 Bft) 97,87 %
01.12.2016 01:08 3,1 C 66 % 1029,1 hPa 0,0 l/m 11,3 km/h (2 Bft) W 277 0 min 0,000 mm 0,0 UV-I 0 W/m -2,6 C -1,0 C 17,7 km/h (3 Bft) 97,87 %
01.12.2016 01:10 3,1 C 66 % 1029,1 hPa 0,0 l/m 9,6 km/h (2 Bft) W-SW 254 0 min 0,000 mm 0,0 UV-I 0 W/m -2,6 C 0,3 C 16,1 km/h (3 Bft) 98,00 %
01.12.2016 01:12 3,0 C 66 % 1029,1 hPa 0,0 l/m 11,7 km/h (2 Bft) W 267 0 min 0,000 mm 0,0 UV-I 0 W/m -2,7 C -1,3 C 16,1 km/h (3 Bft) 97,56 %
01.12.2016 01:14 3,0 C 66 % 1029,1 hPa 0,0 l/m 8,8 km/h (2 Bft) W 279 0 min 0,000 mm 0,0 UV-I 0 W/m -2,7 C 0,8 C 17,7 km/h (3 Bft) 97,44 %
01.12.2016 01:16 3,0 C 66 % 1029,0 hPa 0,0 l/m 12,2 km/h (2 Bft) W 261 0 min 0,000 mm 0,0 UV-I 0 W/m -2,7 C -1,7 C 17,7 km/h (3 Bft) 98,36 %
01.12.2016 01:18 3,0 C 66 % 1029,1 hPa 0,0 l/m 9,3 km/h (2 Bft) SW 232 0 min 0,000 mm 0,0 UV-I 0 W/m -2,7 C 0,4 C 14,5 km/h (3 Bft) 95,83 %
01.12.2016 01:20 3,0 C 66 % 1029,1 hPa 0,0 l/m 10,0 km/h (2 Bft) W 271 0 min 0,000 mm 0,0 UV-I 0 W/m -2,7 C -0,1 C 16,1 km/h (3 Bft) 98,39 %
01.12.2016 01:22 3,0 C 66 % 1029,1 hPa 0,0 l/m 14,5 km/h (3 Bft) W-SW 250 0 min 0,000 mm 0,0 UV-I 0 W/m -2,7 C -3,1 C 20,9 km/h (4 Bft) 94,74 %
01.12.2016 01:24 3,0 C 66 % 1029,2 hPa 0,0 l/m 11,6 km/h (2 Bft) W-SW 244 0 min 0,000 mm 0,0 UV-I 0 W/m -2,7 C -1,3 C 17,7 km/h (3 Bft) 96,23 %
01.12.2016 01:26 3,0 C 66 % 1029,2 hPa 0,0 l/m 13,3 km/h (3 Bft) W 267 0 min 0,000 mm 0,0 UV-I 0 W/m -2,7 C -2,4 C 20,9 km/h (4 Bft) 98,11 %
01.12.2016 01:28 3,0 C 66 % 1029,1 hPa 0,0 l/m 11,3 km/h (2 Bft) SW 235 0 min 0,000 mm 0,0 UV-I 0 W/m -2,7 C -1,1 C 16,1 km/h (3 Bft) 96,15 %
01.12.2016 01:30 2,9 C 66 % 1029,0 hPa 0,0 l/m 10,7 km/h (2 Bft) W-SW 242 0 min 0,000 mm 0,0 UV-I 0 W/m -2,8 C -0,8 C 20,9 km/h (4 Bft) 98,53 %
01.12.2016 01:32 2,9 C 66 % 1028,9 hPa 0,0 l/m 15,5 km/h (3 Bft) W 263 0 min 0,000 mm 0,0 UV-I 0 W/m -2,8 C -3,7 C 22,5 km/h (4 Bft) 97,56 %
01.12.2016 01:34 2,9 C 66 % 1028,9 hPa 0,0 l/m 17,6 km/h (3 Bft) W-SW 246 0 min 0,000 mm 0,0 UV-I 0 W/m -2,8 C -4,8 C 24,1 km/h (4 Bft) 98,00 %
01.12.2016 01:36 3,0 C 66 % 1028,7 hPa 0,0 l/m 18,7 km/h (3 Bft) SW 232 0 min 0,000 mm 0,0 UV-I 0 W/m -2,7 C -5,2 C 27,4 km/h (4 Bft) 97,87 %
01.12.2016 01:38 3,0 C 65 % 1028,6 hPa 0,0 l/m 19,4 km/h (3 Bft) W-SW 246 0 min 0,000 mm 0,0 UV-I 0 W/m -2,9 C -5,5 C 29,0 km/h (5 Bft) 96,23 %
01.12.2016 01:40 3,1 C 65 % 1028,6 hPa 0,0 l/m 18,3 km/h (3 Bft) W-SW 250 0 min 0,000 mm 0,0 UV-I 0 W/m -2,8 C -4,9 C 24,1 km/h (4 Bft) 100,00 %
01.12.2016 01:42 3,1 C 65 % 1028,6 hPa 0,0 l/m 17,6 km/h (3 Bft) W-SW 239 0 min 0,000 mm 0,0 UV-I 0 W/m -2,8 C -4,6 C 27,4 km/h (4 Bft) 97,56 %
01.12.2016 01:44 3,1 C 64 % 1028,6 hPa 0,0 l/m 19,3 km/h (3 Bft) W-SW 254 0 min 0,000 mm 0,0 UV-I 0 W/m -3,0 C -5,3 C 30,6 km/h (5 Bft) 98,11 %
01.12.2016 01:46 3,1 C 64 % 1028,6 hPa 0,0 l/m 19,4 km/h (3 Bft) SW 232 0 min 0,000 mm 0,0 UV-I 0 W/m -3,0 C -5,4 C 25,7 km/h (4 Bft) 100,00 %
01.12.2016 01:48 3,1 C 64 % 1028,5 hPa 0,0 l/m 16,9 km/h (3 Bft) W-SW 240 0 min 0,000 mm 0,0 UV-I 0 W/m -3,0 C -4,2 C 22,5 km/h (4 Bft) 100,00 %
01.12.2016 01:50 3,1 C 63 % 1028,5 hPa 0,0 l/m 18,4 km/h (3 Bft) W-SW 257 0 min 0,000 mm 0,0 UV-I 0 W/m -3,2 C -4,9 C 30,6 km/h (5 Bft) 100,00 %
01.12.2016 01:52 3,1 C 63 % 1028,5 hPa 0,0 l/m 16,6 km/h (3 Bft) W 265 0 min 0,000 mm 0,0 UV-I 0 W/m -3,2 C -4,1 C 22,5 km/h (4 Bft) 97,56 %
01.12.2016 01:54 3,1 C 62 % 1028,6 hPa 0,0 l/m 17,1 km/h (3 Bft) W-SW 255 0 min 0,000 mm 0,0 UV-I 0 W/m -3,5 C -4,3 C 32,2 km/h (5 Bft) 97,62 %
01.12.2016 01:56 3,1 C 62 % 1028,6 hPa 0,0 l/m 14,7 km/h (3 Bft) W-SW 247 0 min 0,000 mm 0,0 UV-I 0 W/m -3,5 C -3,1 C 22,5 km/h (4 Bft) 100,00 %
01.12.2016 01:58 3,1 C 62 % 1028,8 hPa 0,0 l/m 17,5 km/h (3 Bft) W-SW 249 0 min 0,000 mm 0,0 UV-I 0 W/m -3,5 C -4,5 C 30,6 km/h (5 Bft) 96,30 %
01.12.2016 02:00 3,2 C 61 % 1028,8 hPa 0,0 l/m 17,9 km/h (3 Bft) W 274 0 min 0,000 mm 0,0 UV-I 0 W/m -3,6 C -4,6 C 25,7 km/h (4 Bft) 98,51 %
01.12.2016 02:02 3,1 C 61 % 1028,8 hPa 0,0 l/m 18,8 km/h (3 Bft) W-SW 256 0 min 0,051 mm 0,0 UV-I 0 W/m -3,7 C -5,1 C 30,6 km/h (5 Bft) 100,00 %
01.12.2016 02:04 3,1 C 60 % 1028,6 hPa 0,0 l/m 17,6 km/h (3 Bft) W 270 0 min 0,000 mm 0,0 UV-I 0 W/m -3,9 C -4,6 C 27,4 km/h (4 Bft) 100,00 %
01.12.2016 02:06 3,1 C 60 % 1028,6 hPa 0,0 l/m 18,3 km/h (3 Bft) W-SW 257 0 min 0,000 mm 0,0 UV-I 0 W/m -3,9 C -4,9 C 24,1 km/h (4 Bft) 97,73 %
01.12.2016 02:08 3,1 C 60 % 1028,6 hPa 0,0 l/m 17,8 km/h (3 Bft) W-SW 257 0 min 0,000 mm 0,0 UV-I 0 W/m -3,9 C -4,6 C 29,0 km/h (5 Bft) 100,00 %
01.12.2016 02:10 3,1 C 61 % 1028,6 hPa 0,0 l/m 16,0 km/h (3 Bft) W-SW 242 0 min 0,000 mm 0,0 UV-I 0 W/m -3,7 C -3,8 C 20,9 km/h (4 Bft) 100,00 %
01.12.2016 02:12 3,1 C 60 % 1028,5 hPa 0,0 l/m 18,1 km/h (3 Bft) W-SW 245 0 min 0,000 mm 0,0 UV-I 0 W/m -3,9 C -4,8 C 27,4 km/h (4 Bft) 100,00 %
01.12.2016 02:14 3,1 C 60 % 1028,5 hPa 0,0 l/m 19,8 km/h (3 Bft) W-SW 252 0 min 0,000 mm 0,0 UV-I 0 W/m -3,9 C -5,5 C 30,6 km/h (5 Bft) 100,00 %
01.12.2016 02:16 3,1 C 60 % 1028,5 hPa 0,0 l/m 14,6 km/h (3 Bft) W 266 0 min 0,000 mm 0,0 UV-I 0 W/m -3,9 C -3,0 C 22,5 km/h (4 Bft) 100,00 %
01.12.2016 02:18 3,1 C 60 % 1028,5 hPa 0,0 l/m 17,6 km/h (3 Bft) W 269 0 min 0,000 mm 0,0 UV-I 0 W/m -3,9 C -4,6 C 30,6 km/h (5 Bft) 100,00 %
01.12.2016 02:20 3,1 C 60 % 1028,5 hPa 0,0 l/m 15,5 km/h (3 Bft) SW 217 0 min 0,000 mm 0,0 UV-I 0 W/m -3,9 C -3,5 C 22,5 km/h (4 Bft) 100,00 %
01.12.2016 02:22 3,1 C 60 % 1028,6 hPa 0,0 l/m 16,1 km/h (3 Bft) W-SW 257 0 min 0,000 mm 0,0 UV-I 0 W/m -3,9 C -3,8 C 22,5 km/h (4 Bft) 100,00 %
01.12.2016 02:24 3,1 C 60 % 1028,6 hPa 0,0 l/m 15,1 km/h (3 Bft) W-SW 254 0 min 0,000 mm 0,0 UV-I 0 W/m -3,9 C -3,3 C 22,5 km/h (4 Bft) 100,00 %
01.12.2016 02:26 3,1 C 60 % 1028,7 hPa 0,0 l/m 13,2 km/h (3 Bft) W-NW 291 0 min 0,000 mm 0,0 UV-I 0 W/m -3,9 C -2,2 C 17,7 km/h (3 Bft) 100,00 %
01.12.2016 02:28 3,1 C 60 % 1028,6 hPa 0,0 l/m 11,1 km/h (2 Bft) W 264 0 min 0,000 mm 0,0 UV-I 0 W/m -3,9 C -0,8 C 19,3 km/h (3 Bft) 100,00 %
01.12.2016 02:30 3,1 C 60 % 1028,6 hPa 0,0 l/m 15,1 km/h (3 Bft) W-SW 258 0 min 0,000 mm 0,0 UV-I 0 W/m -3,9 C -3,3 C 22,5 km/h (4 Bft) 97,73 %
01.12.2016 02:32 3,1 C 60 % 1028,6 hPa 0,0 l/m 12,8 km/h (3 Bft) W-SW 238 0 min 0,000 mm 0,0 UV-I 0 W/m -3,9 C -1,9 C 17,7 km/h (3 Bft) 96,00 %
01.12.2016 02:34 3,0 C 60 % 1028,6 hPa 0,0 l/m 11,9 km/h (2 Bft) SW 229 0 min 0,000 mm 0,0 UV-I 0 W/m -4,0 C -1,5 C 17,7 km/h (3 Bft) 100,00 %
01.12.2016 02:36 3,0 C 60 % 1028,6 hPa 0,0 l/m 14,3 km/h (3 Bft) W 266 0 min 0,000 mm 0,0 UV-I 0 W/m -4,0 C -3,0 C 19,3 km/h (3 Bft) 100,00 %
01.12.2016 02:38 3,0 C 59 % 1028,7 hPa 0,0 l/m 13,7 km/h (3 Bft) W 268 0 min 0,000 mm 0,0 UV-I 0 W/m -4,2 C -2,6 C 19,3 km/h (3 Bft) 100,00 %
01.12.2016 02:40 3,0 C 59 % 1028,7 hPa 0,0 l/m 13,2 km/h (3 Bft) W-SW 238 0 min 0,000 mm 0,0 UV-I 0 W/m -4,2 C -2,3 C 22,5 km/h (4 Bft) 100,00 %
01.12.2016 02:42 3,0 C 59 % 1028,8 hPa 0,0 l/m 8,8 km/h (2 Bft) W-SW 245 0 min 0,000 mm 0,0 UV-I 0 W/m -4,2 C 0,8 C 14,5 km/h (3 Bft) 100,00 %
01.12.2016 02:44 3,0 C 60 % 1028,8 hPa 0,0 l/m 10,6 km/h (2 Bft) W 278 0 min 0,000 mm 0,0 UV-I 0 W/m -4,0 C -0,6 C 19,3 km/h (3 Bft) 100,00 %
01.12.2016 02:46 3,0 C 59 % 1028,8 hPa 0,0 l/m 9,2 km/h (2 Bft) W 271 0 min 0,000 mm 0,0 UV-I 0 W/m -4,2 C 0,5 C 12,9 km/h (3 Bft) 100,00 %
01.12.2016 02:48 3,0 C 60 % 1028,8 hPa 0,0 l/m 10,9 km/h (2 Bft) W-SW 246 0 min 0,000 mm 0,0 UV-I 0 W/m -4,0 C -0,8 C 19,3 km/h (3 Bft) 98,00 %
01.12.2016 02:50 3,0 C 60 % 1028,8 hPa 0,0 l/m 9,6 km/h (2 Bft) W 262 0 min 0,000 mm 0,0 UV-I 0 W/m -4,0 C 0,2 C 14,5 km/h (3 Bft) 100,00 %
01.12.2016 02:52 2,9 C 60 % 1028,7 hPa 0,0 l/m 11,8 km/h (2 Bft) W-SW 239 0 min 0,000 mm 0,0 UV-I 0 W/m -4,1 C -1,5 C 16,1 km/h (3 Bft) 100,00 %
01.12.2016 02:54 2,9 C 60 % 1028,7 hPa 0,0 l/m 13,0 km/h (3 Bft) NW 305 0 min 0,000 mm 0,0 UV-I 0 W/m -4,1 C -2,3 C 17,7 km/h (3 Bft) 100,00 %
01.12.2016 02:56 2,9 C 60 % 1028,6 hPa 0,0 l/m 9,9 km/h (2 Bft) W 265 0 min 0,000 mm 0,0 UV-I 0 W/m -4,1 C -0,2 C 19,3 km/h (3 Bft) 98,21 %
01.12.2016 02:58 2,9 C 60 % 1028,6 hPa 0,0 l/m 15,7 km/h (3 Bft) W-SW 244 0 min 0,000 mm 0,0 UV-I 0 W/m -4,1 C -3,8 C 22,5 km/h (4 Bft) 97,56 %
01.12.2016 03:00 2,9 C 60 % 1028,6 hPa 0,0 l/m 12,1 km/h (2 Bft) W 259 0 min 0,051 mm 0,0 UV-I 0 W/m -4,1 C -1,7 C 19,3 km/h (3 Bft) 100,00 %
01.12.2016 03:02 2,9 C 60 % 1028,5 hPa 0,0 l/m 13,8 km/h (3 Bft) W-SW 254 0 min 0,000 mm 0,0 UV-I 0 W/m -4,1 C -2,8 C 20,9 km/h (4 Bft) 97,37 %
01.12.2016 03:04 2,9 C 61 % 1028,5 hPa 0,0 l/m 13,3 km/h (3 Bft) W 259 0 min 0,000 mm 0,0 UV-I 0 W/m -3,9 C -2,5 C 17,7 km/h (3 Bft) 98,00 %
01.12.2016 03:06 2,8 C 61 % 1028,6 hPa 0,0 l/m 14,4 km/h (3 Bft) W-SW 246 0 min 0,000 mm 0,0 UV-I 0 W/m -4,0 C -3,3 C 17,7 km/h (3 Bft) 100,00 %
01.12.2016 03:08 2,8 C 60 % 1028,5 hPa 0,0 l/m 10,0 km/h (2 Bft) W 261 0 min 0,000 mm 0,0 UV-I 0 W/m -4,2 C -0,4 C 17,7 km/h (3 Bft) 100,00 %
01.12.2016 03:10 2,8 C 60 % 1028,5 hPa 0,0 l/m 10,4 km/h (2 Bft) SW 223 0 min 0,000 mm 0,0 UV-I 0 W/m -4,2 C -0,7 C 14,5 km/h (3 Bft) 100,00 %
01.12.2016 03:12 2,8 C 60 % 1028,5 hPa 0,0 l/m 9,5 km/h (2 Bft) W-SW 248 0 min 0,000 mm 0,0 UV-I 0 W/m -4,2 C 0,0 C 14,5 km/h (3 Bft) 100,00 %
01.12.2016 03:14 2,8 C 61 % 1028,5 hPa 0,0 l/m 11,1 km/h (2 Bft) W-SW 246 0 min 0,000 mm 0,0 UV-I 0 W/m -4,0 C -1,2 C 16,1 km/h (3 Bft) 97,56 %
01.12.2016 03:16 2,8 C 60 % 1028,5 hPa 0,0 l/m 11,5 km/h (2 Bft) W 270 0 min 0,000 mm 0,0 UV-I 0 W/m -4,2 C -1,4 C 14,5 km/h (3 Bft) 97,78 %
01.12.2016 03:18 2,8 C 60 % 1028,5 hPa 0,0 l/m 12,4 km/h (3 Bft) W-SW 242 0 min 0,000 mm 0,0 UV-I 0 W/m -4,2 C -2,0 C 17,7 km/h (3 Bft) 98,00 %
01.12.2016 03:20 2,8 C 60 % 1028,5 hPa 0,0 l/m 10,8 km/h (2 Bft) W 259 0 min 0,000 mm 0,0 UV-I 0 W/m -4,2 C -0,9 C 16,1 km/h (3 Bft) 94,23 %
01.12.2016 03:22 2,8 C 60 % 1028,5 hPa 0,0 l/m 13,3 km/h (3 Bft) W-SW 247 0 min 0,000 mm 0,0 UV-I 0 W/m -4,2 C -2,6 C 17,7 km/h (3 Bft) 97,22 %
01.12.2016 03:24 2,8 C 60 % 1028,5 hPa 0,0 l/m 12,9 km/h (3 Bft) W 259 0 min 0,000 mm 0,0 UV-I 0 W/m -4,2 C -2,4 C 25,7 km/h (4 Bft) 96,23 %
01.12.2016 03:26 2,8 C 59 % 1028,5 hPa 0,0 l/m 15,7 km/h (3 Bft) W 271 0 min 0,000 mm 0,0 UV-I 0 W/m -4,4 C -4,0 C 22,5 km/h (4 Bft) 90,91 %
01.12.2016 03:28 2,9 C 58 % 1028,5 hPa 0,0 l/m 12,2 km/h (2 Bft) W-SW 237 0 min 0,000 mm 0,0 UV-I 0 W/m -4,5 C -1,8 C 20,9 km/h (4 Bft) 96,43 %
01.12.2016 03:30 2,9 C 59 % 1028,5 hPa 0,0 l/m 12,4 km/h (3 Bft) W 259 0 min 0,000 mm 0,0 UV-I 0 W/m -4,3 C -1,9 C 17,7 km/h (3 Bft) 97,73 %
01.12.2016 03:32 2,9 C 58 % 1028,5 hPa 0,0 l/m 20,2 km/h (4 Bft) W-SW 252 0 min 0,000 mm 0,0 UV-I 0 W/m -4,5 C -6,0 C 27,4 km/h (4 Bft) 97,87 %
01.12.2016 03:34 3,0 C 59 % 1028,5 hPa 0,0 l/m 15,6 km/h (3 Bft) W-SW 254 0 min 0,000 mm 0,0 UV-I 0 W/m -4,2 C -3,7 C 24,1 km/h (4 Bft) 97,87 %
01.12.2016 03:36 2,9 C 59 % 1028,5 hPa 0,0 l/m 9,1 km/h (2 Bft) SW 234 0 min 0,000 mm 0,0 UV-I 0 W/m -4,3 C 0,5 C 16,1 km/h (3 Bft) 96,00 %
01.12.2016 03:38 2,9 C 60 % 1028,4 hPa 0,0 l/m 16,5 km/h (3 Bft) W-SW 256 0 min 0,000 mm 0,0 UV-I 0 W/m -4,1 C -4,3 C 35,4 km/h (5 Bft) 97,56 %
01.12.2016 03:40 3,0 C 60 % 1028,5 hPa 0,0 l/m 17,9 km/h (3 Bft) W 267 0 min 0,000 mm 0,0 UV-I 0 W/m -4,0 C -4,8 C 29,0 km/h (5 Bft) 94,34 %
01.12.2016 03:42 3,0 C 60 % 1028,5 hPa 0,0 l/m 15,1 km/h (3 Bft) W-NW 290 0 min 0,000 mm 0,0 UV-I 0 W/m -4,0 C -3,4 C 20,9 km/h (4 Bft) 95,12 %
01.12.2016 03:44 2,9 C 61 % 1028,5 hPa 0,0 l/m 13,0 km/h (3 Bft) W-NW 284 0 min 0,000 mm 0,0 UV-I 0 W/m -3,9 C -2,3 C 22,5 km/h (4 Bft) 97,87 %
01.12.2016 03:46 3,0 C 60 % 1028,5 hPa 0,0 l/m 18,1 km/h (3 Bft) NW 306 0 min 0,000 mm 0,0 UV-I 0 W/m -4,0 C -4,9 C 29,0 km/h (5 Bft) 96,00 %
01.12.2016 03:48 3,0 C 61 % 1028,5 hPa 0,0 l/m 14,1 km/h (3 Bft) W 264 0 min 0,000 mm 0,0 UV-I 0 W/m -3,8 C -2,8 C 24,1 km/h (4 Bft) 97,56 %
01.12.2016 03:50 3,0 C 61 % 1028,6 hPa 0,0 l/m 15,8 km/h (3 Bft) W-NW 282 0 min 0,000 mm 0,0 UV-I 0 W/m -3,8 C -3,8 C 22,5 km/h (4 Bft) 98,00 %
01.12.2016 03:52 3,0 C 61 % 1028,6 hPa 0,0 l/m 10,1 km/h (2 Bft) W-SW 255 0 min 0,000 mm 0,0 UV-I 0 W/m -3,8 C -0,2 C 14,5 km/h (3 Bft) 100,00 %
01.12.2016 03:54 2,9 C 62 % 1028,5 hPa 0,0 l/m 8,7 km/h (2 Bft) W-NW 282 0 min 0,000 mm 0,0 UV-I 0 W/m -3,6 C 0,8 C 14,5 km/h (3 Bft) 98,21 %
01.12.2016 03:56 2,9 C 62 % 1028,4 hPa 0,0 l/m 8,7 km/h (2 Bft) W-SW 256 0 min 0,000 mm 0,0 UV-I 0 W/m -3,6 C 0,8 C 20,9 km/h (4 Bft) 100,00 %
01.12.2016 03:58 2,9 C 62 % 1028,5 hPa 0,0 l/m 10,7 km/h (2 Bft) W-SW 252 0 min 0,000 mm 0,0 UV-I 0 W/m -3,6 C -0,8 C 22,5 km/h (4 Bft) 100,00 %
01.12.2016 04:00 2,8 C 63 % 1028,5 hPa 0,0 l/m 9,5 km/h (2 Bft) W 259 0 min 0,051 mm 0,0 UV-I 0 W/m -3,5 C 0,0 C 16,1 km/h (3 Bft) 98,11 %
01.12.2016 04:04 2,8 C 64 % 1028,3 hPa 0,0 l/m 5,7 km/h (1 Bft) W 270 0 min 0,000 mm 0,0 UV-I 0 W/m -3,3 C 2,8 C 11,3 km/h (2 Bft) 100,00 %
01.12.2016 04:06 2,7 C 64 % 1028,3 hPa 0,0 l/m 4,4 km/h (1 Bft) W-SW 257 0 min 0,000 mm 0,0 UV-I 0 W/m -3,4 C 2,7 C 9,7 km/h (2 Bft) 100,00 %
01.12.2016 04:08 2,7 C 64 % 1028,2 hPa 0,0 l/m 4,2 km/h (1 Bft) W 264 0 min 0,000 mm 0,0 UV-I 0 W/m -3,4 C 2,7 C 6,4 km/h (2 Bft) 100,00 %
01.12.2016 04:10 2,7 C 64 % 1028,1 hPa 0,0 l/m 8,2 km/h (2 Bft) W 261 0 min 0,000 mm 0,0 UV-I 0 W/m -3,4 C 1,0 C 12,9 km/h (3 Bft) 100,00 %
01.12.2016 04:12 2,7 C 64 % 1028,2 hPa 0,0 l/m 5,6 km/h (1 Bft) W-SW 244 0 min 0,000 mm 0,0 UV-I 0 W/m -3,4 C 2,7 C 9,7 km/h (2 Bft) 100,00 %
01.12.2016 04:14 2,6 C 64 % 1028,2 hPa 0,0 l/m 6,0 km/h (2 Bft) SW 232 0 min 0,000 mm 0,0 UV-I 0 W/m -3,5 C 2,6 C 9,7 km/h (2 Bft) 100,00 %
01.12.2016 04:16 2,6 C 64 % 1028,1 hPa 0,0 l/m 7,6 km/h (2 Bft) SW 234 0 min 0,000 mm 0,0 UV-I 0 W/m -3,5 C 1,5 C 12,9 km/h (3 Bft) 97,92 %
01.12.2016 04:18 2,6 C 64 % 1028,1 hPa 0,0 l/m 6,6 km/h (2 Bft) SW 225 0 min 0,000 mm 0,0 UV-I 0 W/m -3,5 C 2,4 C 11,3 km/h (2 Bft) 97,37 %
01.12.2016 04:20 2,6 C 64 % 1028,1 hPa 0,0 l/m 7,7 km/h (2 Bft) S-SW 202 0 min 0,000 mm 0,0 UV-I 0 W/m -3,5 C 1,4 C 12,9 km/h (3 Bft) 100,00 %
01.12.2016 04:22 2,6 C 64 % 1028,0 hPa 0,0 l/m 5,8 km/h (2 Bft) S-SW 206 0 min 0,000 mm 0,0 UV-I 0 W/m -3,5 C 2,6 C 8,0 km/h (2 Bft) 100,00 %
01.12.2016 04:24 2,5 C 63 % 1028,0 hPa 0,0 l/m 6,8 km/h (2 Bft) SW 214 0 min 0,000 mm 0,0 UV-I 0 W/m -3,8 C 2,1 C 11,3 km/h (2 Bft) 100,00 %
01.12.2016 04:26 2,5 C 62 % 1028,0 hPa 0,0 l/m 7,1 km/h (2 Bft) W-SW 238 0 min 0,000 mm 0,0 UV-I 0 W/m -4,0 C 1,8 C 11,3 km/h (2 Bft) 100,00 %
01.12.2016 04:28 2,5 C 62 % 1027,9 hPa 0,0 l/m 7,2 km/h (2 Bft) SW 229 0 min 0,000 mm 0,0 UV-I 0 W/m -4,0 C 1,7 C 11,3 km/h (2 Bft) 100,00 %
01.12.2016 04:30 2,5 C 62 % 1027,8 hPa 0,0 l/m 7,1 km/h (2 Bft) S-SW 204 0 min 0,000 mm 0,0 UV-I 0 W/m -4,0 C 1,8 C 11,3 km/h (2 Bft) 100,00 %
01.12.2016 04:32 2,5 C 62 % 1027,8 hPa 0,0 l/m 7,4 km/h (2 Bft) W-SW 248 0 min 0,000 mm 0,0 UV-I 0 W/m -4,0 C 1,5 C 11,3 km/h (2 Bft) 100,00 %
01.12.2016 04:34 2,4 C 62 % 1027,8 hPa 0,0 l/m 8,5 km/h (2 Bft) W-SW 237 0 min 0,000 mm 0,0 UV-I 0 W/m -4,1 C 0,4 C 12,9 km/h (3 Bft) 98,21 %
01.12.2016 04:36 2,4 C 63 % 1027,9 hPa 0,0 l/m 9,9 km/h (2 Bft) W-SW 250 0 min 0,000 mm 0,0 UV-I 0 W/m -3,9 C -0,7 C 16,1 km/h (3 Bft) 100,00 %
01.12.2016 04:38 2,4 C 63 % 1027,9 hPa 0,0 l/m 11,5 km/h (2 Bft) SW 234 0 min 0,000 mm 0,0 UV-I 0 W/m -3,9 C -1,9 C 17,7 km/h (3 Bft) 100,00 %
01.12.2016 04:40 2,4 C 63 % 1027,9 hPa 0,0 l/m 12,3 km/h (3 Bft) W-SW 248 0 min 0,000 mm 0,0 UV-I 0 W/m -3,9 C -2,4 C 19,3 km/h (3 Bft) 100,00 %
01.12.2016 04:42 2,5 C 63 % 1027,9 hPa 0,0 l/m 9,9 km/h (2 Bft) SW 228 0 min 0,000 mm 0,0 UV-I 0 W/m -3,8 C -0,6 C 12,9 km/h (3 Bft) 97,73 %
01.12.2016 04:44 2,5 C 63 % 1027,9 hPa 0,0 l/m 9,4 km/h (2 Bft) W-SW 245 0 min 0,000 mm 0,0 UV-I 0 W/m -3,8 C -0,2 C 14,5 km/h (3 Bft) 98,21 %
01.12.2016 04:46 2,6 C 63 % 1027,9 hPa 0,0 l/m 10,1 km/h (2 Bft) W-SW 246 0 min 0,000 mm 0,0 UV-I 0 W/m -3,7 C -0,7 C 17,7 km/h (3 Bft) 100,00 %
01.12.2016 04:48 2,6 C 63 % 1027,9 hPa 0,0 l/m 9,8 km/h (2 Bft) SW 228 0 min 0,000 mm 0,0 UV-I 0 W/m -3,7 C -0,4 C 14,5 km/h (3 Bft) 95,74 %
01.12.2016 04:50 2,6 C 63 % 1027,8 hPa 0,0 l/m 11,2 km/h (2 Bft) SW 217 0 min 0,000 mm 0,0 UV-I 0 W/m -3,7 C -1,5 C 16,1 km/h (3 Bft) 100,00 %
01.12.2016 04:52 2,7 C 64 % 1027,7 hPa 0,0 l/m 11,9 km/h (2 Bft) SW 216 0 min 0,000 mm 0,0 UV-I 0 W/m -3,4 C -1,8 C 19,3 km/h (3 Bft) 98,31 %
01.12.2016 04:54 2,7 C 64 % 1027,7 hPa 0,0 l/m 11,2 km/h (2 Bft) SW 229 0 min 0,000 mm 0,0 UV-I 0 W/m -3,4 C -1,3 C 17,7 km/h (3 Bft) 100,00 %
01.12.2016 04:56 2,7 C 65 % 1027,7 hPa 0,0 l/m 12,8 km/h (3 Bft) SW 225 0 min 0,000 mm 0,0 UV-I 0 W/m -3,2 C -2,4 C 19,3 km/h (3 Bft) 100,00 %
01.12.2016 04:58 2,7 C 65 % 1027,7 hPa 0,0 l/m 14,4 km/h (3 Bft) W-SW 238 0 min 0,000 mm 0,0 UV-I 0 W/m -3,2 C -3,4 C 17,7 km/h (3 Bft) 100,00 %
01.12.2016 05:00 2,7 C 65 % 1027,6 hPa 0,0 l/m 13,0 km/h (3 Bft) W-SW 244 0 min 0,025 mm 0,0 UV-I 0 W/m -3,2 C -2,5 C 20,9 km/h (4 Bft) 100,00 %
01.12.2016 05:02 2,7 C 65 % 1027,6 hPa 0,0 l/m 13,1 km/h (3 Bft) W-SW 253 0 min 0,000 mm 0,0 UV-I 0 W/m -3,2 C -2,6 C 19,3 km/h (3 Bft) 97,73 %
01.12.2016 05:04 2,7 C 65 % 1027,6 hPa 0,0 l/m 14,0 km/h (3 Bft) SW 215 0 min 0,000 mm 0,0 UV-I 0 W/m -3,2 C -3,1 C 20,9 km/h (4 Bft) 100,00 %
01.12.2016 05:06 2,8 C 65 % 1027,6 hPa 0,0 l/m 15,0 km/h (3 Bft) SW 232 0 min 0,000 mm 0,0 UV-I 0 W/m -3,1 C -3,6 C 22,5 km/h (4 Bft) 100,00 %
01.12.2016 05:08 2,8 C 66 % 1027,5 hPa 0,0 l/m 14,4 km/h (3 Bft) W-SW 242 0 min 0,000 mm 0,0 UV-I 0 W/m -2,9 C -3,3 C 20,9 km/h (4 Bft) 94,34 %
01.12.2016 05:10 2,8 C 66 % 1027,5 hPa 0,0 l/m 14,4 km/h (3 Bft) SW 236 0 min 0,000 mm 0,0 UV-I 0 W/m -2,9 C -3,3 C 19,3 km/h (3 Bft) 100,00 %
01.12.2016 05:12 2,8 C 67 % 1027,6 hPa 0,0 l/m 10,7 km/h (2 Bft) SW 225 0 min 0,000 mm 0,0 UV-I 0 W/m -2,7 C -0,9 C 14,5 km/h (3 Bft) 100,00 %
01.12.2016 05:14 2,8 C 67 % 1027,6 hPa 0,0 l/m 11,8 km/h (2 Bft) SW 214 0 min 0,000 mm 0,0 UV-I 0 W/m -2,7 C -1,6 C 16,1 km/h (3 Bft) 95,12 %
01.12.2016 05:16 2,8 C 67 % 1027,5 hPa 0,0 l/m 12,1 km/h (2 Bft) W-SW 253 0 min 0,000 mm 0,0 UV-I 0 W/m -2,7 C -1,8 C 17,7 km/h (3 Bft) 100,00 %
01.12.2016 05:18 2,8 C 67 % 1027,5 hPa 0,0 l/m 12,4 km/h (3 Bft) SW 222 0 min 0,000 mm 0,0 UV-I 0 W/m -2,7 C -2,0 C 17,7 km/h (3 Bft) 96,36 %
01.12.2016 05:20 2,8 C 68 % 1027,5 hPa 0,0 l/m 13,9 km/h (3 Bft) SW 224 0 min 0,000 mm 0,0 UV-I 0 W/m -2,5 C -3,0 C 19,3 km/h (3 Bft) 100,00 %
01.12.2016 05:22 2,8 C 68 % 1027,5 hPa 0,0 l/m 9,5 km/h (2 Bft) W-SW 242 0 min 0,000 mm 0,0 UV-I 0 W/m -2,5 C 0,0 C 12,9 km/h (3 Bft) 97,56 %
01.12.2016 05:24 2,8 C 68 % 1027,5 hPa 0,0 l/m 11,3 km/h (2 Bft) W 269 0 min 0,000 mm 0,0 UV-I 0 W/m -2,5 C -1,3 C 19,3 km/h (3 Bft) 98,11 %
01.12.2016 05:26 2,8 C 68 % 1027,5 hPa 0,0 l/m 10,0 km/h (2 Bft) W 262 0 min 0,000 mm 0,0 UV-I 0 W/m -2,5 C -0,4 C 16,1 km/h (3 Bft) 97,56 %
01.12.2016 05:28 2,8 C 68 % 1027,5 hPa 0,0 l/m 10,5 km/h (2 Bft) W-SW 239 0 min 0,000 mm 0,0 UV-I 0 W/m -2,5 C -0,7 C 16,1 km/h (3 Bft) 98,31 %
01.12.2016 05:30 2,8 C 68 % 1027,5 hPa 0,0 l/m 8,8 km/h (2 Bft) SW 227 0 min 0,000 mm 0,0 UV-I 0 W/m -2,5 C 0,6 C 12,9 km/h (3 Bft) 97,37 %
01.12.2016 05:32 2,8 C 68 % 1027,4 hPa 0,0 l/m 9,7 km/h (2 Bft) SW 236 0 min 0,000 mm 0,0 UV-I 0 W/m -2,5 C -0,1 C 14,5 km/h (3 Bft) 96,23 %
01.12.2016 05:34 2,9 C 69 % 1027,4 hPa 0,0 l/m 10,0 km/h (2 Bft) W-SW 250 0 min 0,000 mm 0,0 UV-I 0 W/m -2,2 C -0,2 C 14,5 km/h (3 Bft) 97,87 %
01.12.2016 05:36 2,9 C 69 % 1027,5 hPa 0,0 l/m 9,0 km/h (2 Bft) SW 221 0 min 0,000 mm 0,0 UV-I 0 W/m -2,2 C 0,5 C 12,9 km/h (3 Bft) 94,00 %
01.12.2016 05:38 2,9 C 69 % 1027,4 hPa 0,0 l/m 8,0 km/h (2 Bft) SW 227 0 min 0,000 mm 0,0 UV-I 0 W/m -2,2 C 1,4 C 14,5 km/h (3 Bft) 97,73 %
01.12.2016 05:40 2,9 C 70 % 1027,4 hPa 0,0 l/m 6,2 km/h (2 Bft) SW 234 0 min 0,000 mm 0,0 UV-I 0 W/m -2,0 C 2,9 C 8,0 km/h (2 Bft) 93,18 %
01.12.2016 05:42 2,9 C 70 % 1027,4 hPa 0,0 l/m 9,1 km/h (2 Bft) W-SW 244 0 min 0,000 mm 0,0 UV-I 0 W/m -2,0 C 0,5 C 17,7 km/h (3 Bft) 97,73 %
01.12.2016 05:44 2,8 C 70 % 1027,4 hPa 0,0 l/m 9,7 km/h (2 Bft) SW 215 0 min 0,000 mm 0,0 UV-I 0 W/m -2,1 C -0,1 C 17,7 km/h (3 Bft) 92,45 %
01.12.2016 05:46 2,8 C 70 % 1027,4 hPa 0,0 l/m 7,8 km/h (2 Bft) W-SW 239 0 min 0,000 mm 0,0 UV-I 0 W/m -2,1 C 1,5 C 14,5 km/h (3 Bft) 95,74 %
01.12.2016 05:48 2,8 C 70 % 1027,3 hPa 0,0 l/m 8,8 km/h (2 Bft) SW 229 0 min 0,000 mm 0,0 UV-I 0 W/m -2,1 C 0,6 C 17,7 km/h (3 Bft) 97,87 %
01.12.2016 05:50 2,9 C 70 % 1027,3 hPa 0,0 l/m 12,3 km/h (3 Bft) W-SW 246 0 min 0,000 mm 0,0 UV-I 0 W/m -2,0 C -1,9 C 17,7 km/h (3 Bft) 97,37 %
01.12.2016 05:52 2,9 C 70 % 1027,3 hPa 0,0 l/m 10,5 km/h (2 Bft) SW 232 0 min 0,000 mm 0,0 UV-I 0 W/m -2,0 C -0,6 C 16,1 km/h (3 Bft) 98,11 %
01.12.2016 05:54 2,8 C 70 % 1027,3 hPa 0,0 l/m 8,8 km/h (2 Bft) SW 235 0 min 0,000 mm 0,0 UV-I 0 W/m -2,1 C 0,6 C 12,9 km/h (3 Bft) 95,45 %
01.12.2016 05:56 2,8 C 70 % 1027,3 hPa 0,0 l/m 11,0 km/h (2 Bft) SW 234 0 min 0,000 mm 0,0 UV-I 0 W/m -2,1 C -1,1 C 16,1 km/h (3 Bft) 93,33 %
01.12.2016 05:58 2,8 C 70 % 1027,3 hPa 0,0 l/m 11,9 km/h (2 Bft) SW 234 0 min 0,000 mm 0,0 UV-I 0 W/m -2,1 C -1,7 C 16,1 km/h (3 Bft) 97,01 %
01.12.2016 06:00 2,8 C 70 % 1027,2 hPa 0,0 l/m 11,6 km/h (2 Bft) SW 226 0 min 0,026 mm 0,0 UV-I 0 W/m -2,1 C -1,5 C 17,7 km/h (3 Bft) 100,00 %
01.12.2016 06:02 2,8 C 69 % 1027,2 hPa 0,0 l/m 10,3 km/h (2 Bft) W-SW 240 0 min 0,000 mm 0,0 UV-I 0 W/m -2,3 C -0,6 C 16,1 km/h (3 Bft) 97,92 %
01.12.2016 06:04 2,8 C 69 % 1027,1 hPa 0,0 l/m 10,8 km/h (2 Bft) SW 233 0 min 0,000 mm 0,0 UV-I 0 W/m -2,3 C -0,9 C 19,3 km/h (3 Bft) 100,00 %
01.12.2016 06:06 2,9 C 68 % 1027,1 hPa 0,0 l/m 11,1 km/h (2 Bft) W-SW 244 0 min 0,000 mm 0,0 UV-I 0 W/m -2,4 C -1,0 C 19,3 km/h (3 Bft) 97,06 %
01.12.2016 06:08 2,9 C 68 % 1027,1 hPa 0,0 l/m 10,3 km/h (2 Bft) SW 233 0 min 0,000 mm 0,0 UV-I 0 W/m -2,4 C -0,5 C 16,1 km/h (3 Bft) 100,00 %
01.12.2016 06:10 2,9 C 67 % 1027,1 hPa 0,0 l/m 13,1 km/h (3 Bft) W-SW 239 0 min 0,000 mm 0,0 UV-I 0 W/m -2,6 C -2,4 C 17,7 km/h (3 Bft) 100,00 %
01.12.2016 06:12 2,9 C 67 % 1027,1 hPa 0,0 l/m 11,2 km/h (2 Bft) S-SW 209 0 min 0,000 mm 0,0 UV-I 0 W/m -2,6 C -1,1 C 17,7 km/h (3 Bft) 100,00 %
01.12.2016 06:14 2,9 C 67 % 1027,0 hPa 0,0 l/m 12,7 km/h (3 Bft) SW 221 0 min 0,000 mm 0,0 UV-I 0 W/m -2,6 C -2,1 C 17,7 km/h (3 Bft) 100,00 %
01.12.2016 06:16 2,9 C 67 % 1027,0 hPa 0,0 l/m 12,0 km/h (2 Bft) W-SW 238 0 min 0,000 mm 0,0 UV-I 0 W/m -2,6 C -1,7 C 19,3 km/h (3 Bft) 100,00 %
01.12.2016 06:18 2,9 C 67 % 1027,0 hPa 0,0 l/m 11,5 km/h (2 Bft) W-SW 240 0 min 0,000 mm 0,0 UV-I 0 W/m -2,6 C -1,3 C 16,1 km/h (3 Bft) 98,00 %
01.12.2016 06:20 2,9 C 67 % 1027,0 hPa 0,0 l/m 14,1 km/h (3 Bft) W-SW 238 0 min 0,000 mm 0,0 UV-I 0 W/m -2,6 C -3,0 C 20,9 km/h (4 Bft) 100,00 %
01.12.2016 06:22 2,9 C 67 % 1026,9 hPa 0,0 l/m 12,6 km/h (3 Bft) S-SW 204 0 min 0,000 mm 0,0 UV-I 0 W/m -2,6 C -2,1 C 19,3 km/h (3 Bft) 100,00 %
01.12.2016 06:24 2,9 C 67 % 1026,9 hPa 0,0 l/m 13,0 km/h (3 Bft) SW 232 0 min 0,000 mm 0,0 UV-I 0 W/m -2,6 C -2,3 C 19,3 km/h (3 Bft) 97,56 %
01.12.2016 06:26 2,9 C 66 % 1026,9 hPa 0,0 l/m 14,2 km/h (3 Bft) W-SW 240 0 min 0,000 mm 0,0 UV-I 0 W/m -2,8 C -3,0 C 22,5 km/h (4 Bft) 100,00 %
01.12.2016 06:28 2,9 C 66 % 1026,9 hPa 0,0 l/m 11,7 km/h (2 Bft) W-SW 253 0 min 0,000 mm 0,0 UV-I 0 W/m -2,8 C -1,5 C 16,1 km/h (3 Bft) 100,00 %
01.12.2016 06:30 2,9 C 66 % 1026,8 hPa 0,0 l/m 13,8 km/h (3 Bft) SW 220 0 min 0,000 mm 0,0 UV-I 0 W/m -2,8 C -2,8 C 22,5 km/h (4 Bft) 100,00 %
01.12.2016 06:32 2,9 C 66 % 1026,9 hPa 0,0 l/m 12,5 km/h (3 Bft) W-SW 257 0 min 0,000 mm 0,0 UV-I 0 W/m -2,8 C -2,0 C 24,1 km/h (4 Bft) 100,00 %
01.12.2016 06:34 2,9 C 65 % 1026,9 hPa 0,0 l/m 17,2 km/h (3 Bft) SW 223 0 min 0,000 mm 0,0 UV-I 0 W/m -3,0 C -4,6 C 27,4 km/h (4 Bft) 100,00 %
01.12.2016 06:36 2,9 C 66 % 1026,8 hPa 0,0 l/m 13,3 km/h (3 Bft) W-SW 258 0 min 0,000 mm 0,0 UV-I 0 W/m -2,8 C -2,5 C 24,1 km/h (4 Bft) 100,00 %
01.12.2016 06:38 3,0 C 66 % 1026,9 hPa 0,0 l/m 14,2 km/h (3 Bft) W-SW 250 0 min 0,000 mm 0,0 UV-I 0 W/m -2,7 C -2,9 C 19,3 km/h (3 Bft) 100,00 %
01.12.2016 06:40 2,9 C 66 % 1026,9 hPa 0,0 l/m 13,1 km/h (3 Bft) SW 221 0 min 0,000 mm 0,0 UV-I 0 W/m -2,8 C -2,4 C 19,3 km/h (3 Bft) 98,08 %
01.12.2016 06:42 2,9 C 65 % 1027,0 hPa 0,0 l/m 14,7 km/h (3 Bft) SW 230 0 min 0,000 mm 0,0 UV-I 0 W/m -3,0 C -3,3 C 22,5 km/h (4 Bft) 100,00 %
01.12.2016 06:44 2,9 C 65 % 1027,0 hPa 0,0 l/m 10,2 km/h (2 Bft) W-SW 238 0 min 0,000 mm 0,0 UV-I 0 W/m -3,0 C -0,4 C 19,3 km/h (3 Bft) 98,00 %
01.12.2016 06:46 2,9 C 66 % 1027,0 hPa 0,0 l/m 12,8 km/h (3 Bft) SW 230 0 min 0,000 mm 0,0 UV-I 0 W/m -2,8 C -2,2 C 17,7 km/h (3 Bft) 97,87 %
01.12.2016 06:48 2,9 C 65 % 1027,1 hPa 0,0 l/m 14,2 km/h (3 Bft) W-SW 245 0 min 0,000 mm 0,0 UV-I 0 W/m -3,0 C -3,0 C 20,9 km/h (4 Bft) 100,00 %
01.12.2016 06:50 2,9 C 65 % 1027,0 hPa 0,0 l/m 12,8 km/h (3 Bft) W-SW 246 0 min 0,000 mm 0,0 UV-I 0 W/m -3,0 C -2,2 C 17,7 km/h (3 Bft) 100,00 %
01.12.2016 06:52 3,0 C 65 % 1027,1 hPa 0,0 l/m 14,5 km/h (3 Bft) W-SW 254 0 min 0,000 mm 0,0 UV-I 0 W/m -2,9 C -3,1 C 20,9 km/h (4 Bft) 100,00 %
01.12.2016 06:54 3,0 C 65 % 1027,1 hPa 0,0 l/m 13,4 km/h (3 Bft) SW 230 0 min 0,000 mm 0,0 UV-I 0 W/m -2,9 C -2,4 C 17,7 km/h (3 Bft) 100,00 %
01.12.2016 06:56 3,1 C 65 % 1027,2 hPa 0,0 l/m 13,1 km/h (3 Bft) W-SW 246 0 min 0,000 mm 0,0 UV-I 0 W/m -2,8 C -2,1 C 22,5 km/h (4 Bft) 100,00 %
01.12.2016 06:58 3,1 C 65 % 1027,2 hPa 0,0 l/m 13,2 km/h (3 Bft) SW 229 0 min 0,000 mm 0,0 UV-I 0 W/m -2,8 C -2,2 C 16,1 km/h (3 Bft) 96,23 %
01.12.2016 07:00 3,1 C 65 % 1027,2 hPa 0,0 l/m 11,7 km/h (2 Bft) W 263 0 min 0,050 mm 0,0 UV-I 0 W/m -2,8 C -1,2 C 17,7 km/h (3 Bft) 100,00 %
01.12.2016 07:02 3,1 C 65 % 1027,2 hPa 0,0 l/m 10,9 km/h (2 Bft) W-SW 247 0 min 0,000 mm 0,0 UV-I 0 W/m -2,8 C -0,7 C 16,1 km/h (3 Bft) 98,21 %
01.12.2016 07:04 3,1 C 65 % 1027,0 hPa 0,0 l/m 13,7 km/h (3 Bft) W-SW 242 0 min 0,000 mm 0,0 UV-I 0 W/m -2,8 C -2,5 C 19,3 km/h (3 Bft) 97,56 %
01.12.2016 07:06 3,1 C 65 % 1027,0 hPa 0,0 l/m 13,9 km/h (3 Bft) W-SW 242 0 min 0,000 mm 0,0 UV-I 0 W/m -2,8 C -2,6 C 19,3 km/h (3 Bft) 98,00 %
01.12.2016 07:08 3,1 C 66 % 1026,8 hPa 0,0 l/m 13,1 km/h (3 Bft) W-SW 249 0 min 0,000 mm 0,0 UV-I 0 W/m -2,6 C -2,1 C 17,7 km/h (3 Bft) 100,00 %
01.12.2016 07:10 3,1 C 66 % 1027,0 hPa 0,0 l/m 10,9 km/h (2 Bft) W-SW 256 0 min 0,000 mm 0,0 UV-I 0 W/m -2,6 C -0,7 C 16,1 km/h (3 Bft) 100,00 %
01.12.2016 07:12 3,1 C 66 % 1027,1 hPa 0,0 l/m 11,7 km/h (2 Bft) W 265 0 min 0,000 mm 0,0 UV-I 0 W/m -2,6 C -1,2 C 20,9 km/h (4 Bft) 98,00 %
01.12.2016 07:14 3,1 C 66 % 1027,1 hPa 0,0 l/m 12,0 km/h (2 Bft) W-SW 237 0 min 0,000 mm 0,0 UV-I 0 W/m -2,6 C -1,4 C 16,1 km/h (3 Bft) 100,00 %
01.12.2016 07:16 3,1 C 67 % 1027,0 hPa 0,0 l/m 13,9 km/h (3 Bft) W-SW 240 0 min 0,000 mm 0,0 UV-I 0 W/m -2,4 C -2,6 C 22,5 km/h (4 Bft) 100,00 %
01.12.2016 07:18 3,1 C 66 % 1027,1 hPa 0,0 l/m 14,5 km/h (3 Bft) W 265 0 min 0,000 mm 0,0 UV-I 0 W/m -2,6 C -2,9 C 19,3 km/h (3 Bft) 100,00 %
01.12.2016 07:20 3,1 C 67 % 1027,0 hPa 0,0 l/m 15,3 km/h (3 Bft) W-SW 243 0 min 0,000 mm 0,0 UV-I 0 W/m -2,4 C -3,4 C 22,5 km/h (4 Bft) 96,15 %
01.12.2016 07:22 3,1 C 67 % 1027,0 hPa 0,0 l/m 13,9 km/h (3 Bft) W 259 0 min 0,000 mm 0,0 UV-I 0 W/m -2,4 C -2,6 C 19,3 km/h (3 Bft) 100,00 %
01.12.2016 07:24 3,1 C 67 % 1027,0 hPa 0,0 l/m 12,5 km/h (3 Bft) SW 219 0 min 0,000 mm 0,0 UV-I 0 W/m -2,4 C -1,8 C 17,7 km/h (3 Bft) 97,62 %
01.12.2016 07:26 3,1 C 67 % 1027,0 hPa 0,0 l/m 11,9 km/h (2 Bft) W-SW 250 0 min 0,000 mm 0,0 UV-I 0 W/m -2,4 C -1,4 C 16,1 km/h (3 Bft) 100,00 %
01.12.2016 07:28 3,1 C 68 % 1027,1 hPa 0,0 l/m 15,9 km/h (3 Bft) W 265 0 min 0,000 mm 0,0 UV-I 0 W/m -2,2 C -3,7 C 22,5 km/h (4 Bft) 100,00 %
01.12.2016 07:30 3,1 C 68 % 1027,1 hPa 0,0 l/m 13,8 km/h (3 Bft) W-SW 257 0 min 0,000 mm 0,0 UV-I 0 W/m -2,2 C -2,5 C 16,1 km/h (3 Bft) 100,00 %
01.12.2016 07:32 3,1 C 68 % 1027,1 hPa 0,0 l/m 14,0 km/h (3 Bft) W 275 0 min 0,000 mm 0,0 UV-I 0 W/m -2,2 C -2,7 C 19,3 km/h (3 Bft) 97,73 %
01.12.2016 07:34 3,1 C 68 % 1027,0 hPa 0,0 l/m 14,8 km/h (3 Bft) W 259 0 min 0,000 mm 0,0 UV-I 0 W/m -2,2 C -3,1 C 20,9 km/h (4 Bft) 98,00 %
01.12.2016 07:36 3,1 C 68 % 1027,0 hPa 0,0 l/m 12,5 km/h (3 Bft) W-SW 246 0 min 0,000 mm 0,0 UV-I 2 W/m -2,2 C -1,8 C 16,1 km/h (3 Bft) 92,11 %
01.12.2016 07:38 3,1 C 68 % 1026,9 hPa 0,0 l/m 13,6 km/h (3 Bft) W-SW 255 0 min 0,000 mm 0,0 UV-I 5 W/m -2,2 C -2,4 C 24,1 km/h (4 Bft) 96,55 %
01.12.2016 07:40 3,1 C 68 % 1026,9 hPa 0,0 l/m 11,0 km/h (2 Bft) W 273 0 min 0,000 mm 0,0 UV-I 5 W/m -2,2 C -0,8 C 19,3 km/h (3 Bft) 97,18 %
01.12.2016 07:42 3,1 C 68 % 1026,9 hPa 0,0 l/m 12,6 km/h (3 Bft) W-SW 254 0 min 0,000 mm 0,0 UV-I 5 W/m -2,2 C -1,8 C 16,1 km/h (3 Bft) 97,37 %
01.12.2016 07:44 3,1 C 68 % 1027,0 hPa 0,0 l/m 11,2 km/h (2 Bft) W-SW 250 0 min 0,000 mm 0,0 UV-I 5 W/m -2,2 C -0,9 C 14,5 km/h (3 Bft) 96,43 %
01.12.2016 07:46 3,1 C 68 % 1026,9 hPa 0,0 l/m 11,5 km/h (2 Bft) SW 224 0 min 0,000 mm 0,0 UV-I 7 W/m -2,2 C -1,1 C 16,1 km/h (3 Bft) 97,56 %
01.12.2016 07:48 3,1 C 68 % 1026,9 hPa 0,0 l/m 9,9 km/h (2 Bft) W-SW 253 0 min 0,000 mm 0,0 UV-I 7 W/m -2,2 C 0,0 C 14,5 km/h (3 Bft) 97,87 %
01.12.2016 07:50 3,0 C 68 % 1026,9 hPa 0,0 l/m 11,6 km/h (2 Bft) W 267 0 min 0,000 mm 0,0 UV-I 7 W/m -2,3 C -1,3 C 19,3 km/h (3 Bft) 98,11 %
01.12.2016 07:52 3,0 C 68 % 1026,8 hPa 0,0 l/m 12,2 km/h (2 Bft) SW 227 0 min 0,000 mm 0,0 UV-I 9 W/m -2,3 C -1,7 C 17,7 km/h (3 Bft) 97,37 %
01.12.2016 07:54 2,9 C 68 % 1026,8 hPa 0,0 l/m 10,3 km/h (2 Bft) W-SW 237 0 min 0,000 mm 0,0 UV-I 10 W/m -2,4 C -0,5 C 16,1 km/h (3 Bft) 97,62 %
01.12.2016 07:56 2,9 C 68 % 1026,8 hPa 0,0 l/m 10,9 km/h (2 Bft) SW 235 0 min 0,000 mm 0,0 UV-I 11 W/m -2,4 C -0,9 C 20,9 km/h (4 Bft) 98,08 %
01.12.2016 07:58 2,9 C 68 % 1026,9 hPa 0,0 l/m 12,6 km/h (3 Bft) SW 227 0 min 0,000 mm 0,0 UV-I 11 W/m -2,4 C -2,1 C 19,3 km/h (3 Bft) 96,08 %
01.12.2016 08:00 2,9 C 69 % 1026,9 hPa 0,0 l/m 13,4 km/h (3 Bft) S-SW 210 0 min 0,026 mm 0,0 UV-I 12 W/m -2,2 C -2,5 C 20,9 km/h (4 Bft) 95,74 %
01.12.2016 08:02 2,9 C 68 % 1026,9 hPa 0,0 l/m 13,7 km/h (3 Bft) W-SW 257 0 min 0,000 mm 0,0 UV-I 13 W/m -2,4 C -2,7 C 19,3 km/h (3 Bft) 96,00 %
01.12.2016 08:04 2,9 C 68 % 1026,9 hPa 0,0 l/m 12,9 km/h (3 Bft) W-SW 245 0 min 0,000 mm 0,0 UV-I 12 W/m -2,4 C -2,2 C 20,9 km/h (4 Bft) 94,29 %
01.12.2016 08:06 3,0 C 68 % 1027,0 hPa 0,0 l/m 11,6 km/h (2 Bft) W 271 0 min 0,000 mm 0,0 UV-I 13 W/m -2,3 C -1,3 C 19,3 km/h (3 Bft) 96,43 %
01.12.2016 08:08 3,0 C 68 % 1027,0 hPa 0,0 l/m 11,5 km/h (2 Bft) W-SW 254 0 min 0,000 mm 0,0 UV-I 15 W/m -2,3 C -1,2 C 19,3 km/h (3 Bft) 92,31 %
01.12.2016 08:10 3,0 C 68 % 1026,9 hPa 0,0 l/m 11,4 km/h (2 Bft) SW 215 0 min 0,000 mm 0,0 UV-I 18 W/m -2,3 C -1,1 C 17,7 km/h (3 Bft) 98,53 %
01.12.2016 08:12 3,0 C 68 % 1026,7 hPa 0,0 l/m 11,9 km/h (2 Bft) W 260 0 min 0,000 mm 0,0 UV-I 19 W/m -2,3 C -1,5 C 16,1 km/h (3 Bft) 100,00 %
01.12.2016 08:14 3,0 C 67 % 1026,8 hPa 0,0 l/m 12,6 km/h (3 Bft) W-SW 246 0 min 0,000 mm 0,0 UV-I 21 W/m -2,5 C -1,9 C 19,3 km/h (3 Bft) 98,00 %
01.12.2016 08:16 3,1 C 67 % 1026,8 hPa 0,0 l/m 13,6 km/h (3 Bft) W-SW 250 0 min 0,000 mm 0,0 UV-I 22 W/m -2,4 C -2,4 C 19,3 km/h (3 Bft) 100,00 %
01.12.2016 08:18 3,0 C 67 % 1026,8 hPa 0,0 l/m 13,9 km/h (3 Bft) SW 223 0 min 0,000 mm 0,0 UV-I 24 W/m -2,5 C -2,7 C 19,3 km/h (3 Bft) 97,37 %
01.12.2016 08:20 3,1 C 66 % 1026,8 hPa 0,0 l/m 13,5 km/h (3 Bft) SW 236 0 min 0,000 mm 0,0 UV-I 24 W/m -2,6 C -2,4 C 17,7 km/h (3 Bft) 100,00 %
01.12.2016 08:22 3,1 C 66 % 1026,8 hPa 0,0 l/m 14,8 km/h (3 Bft) W 267 0 min 0,000 mm 0,0 UV-I 27 W/m -2,6 C -3,1 C 22,5 km/h (4 Bft) 100,00 %
01.12.2016 08:24 3,1 C 66 % 1026,8 hPa 0,0 l/m 15,4 km/h (3 Bft) SW 233 0 min 0,000 mm 0,0 UV-I 30 W/m -2,6 C -3,4 C 24,1 km/h (4 Bft) 98,00 %
01.12.2016 08:26 3,1 C 66 % 1026,8 hPa 0,0 l/m 15,1 km/h (3 Bft) SW 231 0 min 0,000 mm 0,0 UV-I 32 W/m -2,6 C -3,3 C 20,9 km/h (4 Bft) 100,00 %
01.12.2016 08:28 3,1 C 66 % 1026,7 hPa 0,0 l/m 13,5 km/h (3 Bft) W 271 0 min 0,000 mm 0,0 UV-I 35 W/m -2,6 C -2,4 C 20,9 km/h (4 Bft) 100,00 %
01.12.2016 08:30 3,1 C 65 % 1026,8 hPa 0,0 l/m 13,6 km/h (3 Bft) SW 215 0 min 0,000 mm 0,0 UV-I 35 W/m -2,8 C -2,4 C 17,7 km/h (3 Bft) 100,00 %
01.12.2016 08:32 3,1 C 66 % 1026,7 hPa 0,0 l/m 14,1 km/h (3 Bft) W 265 0 min 0,000 mm 0,0 UV-I 35 W/m -2,6 C -2,7 C 17,7 km/h (3 Bft) 100,00 %
01.12.2016 08:34 3,1 C 65 % 1026,7 hPa 0,0 l/m 14,5 km/h (3 Bft) SW 234 0 min 0,000 mm 0,0 UV-I 35 W/m -2,8 C -2,9 C 20,9 km/h (4 Bft) 100,00 %
01.12.2016 08:36 3,1 C 65 % 1026,6 hPa 0,0 l/m 14,4 km/h (3 Bft) W-SW 247 0 min 0,000 mm 0,0 UV-I 36 W/m -2,8 C -2,9 C 24,1 km/h (4 Bft) 100,00 %
01.12.2016 08:38 3,1 C 65 % 1026,6 hPa 0,0 l/m 17,1 km/h (3 Bft) W-SW 255 0 min 0,000 mm 0,0 UV-I 37 W/m -2,8 C -4,3 C 20,9 km/h (4 Bft) 100,00 %
01.12.2016 08:40 3,1 C 64 % 1026,7 hPa 0,0 l/m 16,2 km/h (3 Bft) W-SW 249 0 min 0,000 mm 0,0 UV-I 35 W/m -3,0 C -3,9 C 20,9 km/h (4 Bft) 98,57 %
01.12.2016 08:42 3,1 C 64 % 1026,8 hPa 0,0 l/m 18,4 km/h (3 Bft) W-SW 256 0 min 0,000 mm 0,0 UV-I 35 W/m -3,0 C -4,9 C 24,1 km/h (4 Bft) 100,00 %
01.12.2016 08:44 3,2 C 63 % 1026,8 hPa 0,0 l/m 14,5 km/h (3 Bft) W-SW 244 0 min 0,000 mm 0,0 UV-I 35 W/m -3,1 C -2,8 C 19,3 km/h (3 Bft) 100,00 %
01.12.2016 08:46 3,2 C 63 % 1026,8 hPa 0,0 l/m 12,3 km/h (3 Bft) W 261 0 min 0,000 mm 0,0 UV-I 35 W/m -3,1 C -1,5 C 19,3 km/h (3 Bft) 100,00 %
01.12.2016 08:48 3,2 C 63 % 1026,8 hPa 0,0 l/m 12,7 km/h (3 Bft) W 268 0 min 0,000 mm 0,0 UV-I 37 W/m -3,1 C -1,8 C 19,3 km/h (3 Bft) 100,00 %
01.12.2016 08:50 3,2 C 63 % 1026,7 hPa 0,0 l/m 15,1 km/h (3 Bft) W-SW 251 0 min 0,000 mm 0,0 UV-I 39 W/m -3,1 C -3,2 C 19,3 km/h (3 Bft) 100,00 %
01.12.2016 08:52 3,2 C 63 % 1026,7 hPa 0,0 l/m 12,8 km/h (3 Bft) W-SW 241 0 min 0,000 mm 0,0 UV-I 39 W/m -3,1 C -1,8 C 19,3 km/h (3 Bft) 100,00 %
01.12.2016 08:54 3,2 C 62 % 1026,7 hPa 0,0 l/m 13,5 km/h (3 Bft) W 268 0 min 0,000 mm 0,0 UV-I 40 W/m -3,4 C -2,3 C 19,3 km/h (3 Bft) 98,00 %
01.12.2016 08:56 3,2 C 62 % 1026,7 hPa 0,0 l/m 15,4 km/h (3 Bft) W-SW 239 0 min 0,000 mm 0,0 UV-I 40 W/m -3,4 C -3,3 C 20,9 km/h (4 Bft) 98,00 %
01.12.2016 08:58 3,2 C 61 % 1026,8 hPa 0,0 l/m 16,5 km/h (3 Bft) W-SW 258 0 min 0,000 mm 0,0 UV-I 40 W/m -3,6 C -3,9 C 22,5 km/h (4 Bft) 100,00 %
01.12.2016 09:00 3,2 C 61 % 1026,8 hPa 0,0 l/m 13,6 km/h (3 Bft) SW 236 0 min 0,000 mm 0,0 UV-I 40 W/m -3,6 C -2,3 C 19,3 km/h (3 Bft) 97,56 %
01.12.2016 09:02 3,2 C 60 % 1026,8 hPa 0,0 l/m 15,6 km/h (3 Bft) W-SW 239 0 min 0,051 mm 0,0 UV-I 43 W/m -3,8 C -3,4 C 24,1 km/h (4 Bft) 100,00 %
01.12.2016 09:04 3,2 C 59 % 1026,6 hPa 0,0 l/m 13,8 km/h (3 Bft) W-SW 244 0 min 0,000 mm 0,0 UV-I 44 W/m -4,0 C -2,4 C 22,5 km/h (4 Bft) 100,00 %
01.12.2016 09:06 3,2 C 59 % 1026,7 hPa 0,0 l/m 13,0 km/h (3 Bft) W 259 0 min 0,000 mm 0,0 UV-I 44 W/m -4,0 C -1,9 C 20,9 km/h (4 Bft) 100,00 %
01.12.2016 09:08 3,3 C 59 % 1026,6 hPa 0,0 l/m 13,0 km/h (3 Bft) SW 232 0 min 0,000 mm 0,0 UV-I 48 W/m -3,9 C -1,8 C 19,3 km/h (3 Bft) 100,00 %
01.12.2016 09:10 3,3 C 59 % 1026,6 hPa 0,0 l/m 13,8 km/h (3 Bft) W-SW 258 0 min 0,000 mm 0,0 UV-I 49 W/m -3,9 C -2,3 C 19,3 km/h (3 Bft) 100,00 %
01.12.2016 09:12 3,3 C 59 % 1026,6 hPa 0,0 l/m 16,0 km/h (3 Bft) W-SW 238 0 min 0,000 mm 0,0 UV-I 46 W/m -3,9 C -3,5 C 22,5 km/h (4 Bft) 100,00 %
01.12.2016 09:14 3,3 C 59 % 1026,7 hPa 0,0 l/m 12,5 km/h (3 Bft) W-SW 252 0 min 0,000 mm 0,0 UV-I 40 W/m -3,9 C -1,5 C 17,7 km/h (3 Bft) 95,12 %
01.12.2016 09:16 3,3 C 58 % 1026,6 hPa 0,0 l/m 16,7 km/h (3 Bft) SW 230 0 min 0,000 mm 0,0 UV-I 34 W/m -4,2 C -3,9 C 20,9 km/h (4 Bft) 100,00 %
01.12.2016 09:18 3,3 C 58 % 1026,4 hPa 0,0 l/m 15,2 km/h (3 Bft) W-SW 238 0 min 0,000 mm 0,0 UV-I 31 W/m -4,2 C -3,1 C 20,9 km/h (4 Bft) 100,00 %
01.12.2016 09:20 3,3 C 57 % 1026,5 hPa 0,0 l/m 15,8 km/h (3 Bft) S-SW 208 0 min 0,000 mm 0,0 UV-I 30 W/m -4,4 C -3,4 C 24,1 km/h (4 Bft) 97,62 %
01.12.2016 09:24 3,3 C 58 % 1026,6 hPa 0,0 l/m 13,1 km/h (3 Bft) SW 232 0 min 0,000 mm 0,0 UV-I 29 W/m -4,2 C -1,9 C 22,5 km/h (4 Bft) 100,00 %
01.12.2016 09:26 3,3 C 57 % 1026,6 hPa 0,0 l/m 13,8 km/h (3 Bft) W-SW 248 0 min 0,000 mm 0,0 UV-I 28 W/m -4,4 C -2,3 C 25,7 km/h (4 Bft) 100,00 %
01.12.2016 09:30 3,3 C 56 % 1026,4 hPa 0,0 l/m 14,5 km/h (3 Bft) W-SW 247 0 min 0,000 mm 0,0 UV-I 31 W/m -4,6 C -2,7 C 25,7 km/h (4 Bft) 100,00 %
01.12.2016 09:35 3,3 C 55 % 1026,1 hPa 0,0 l/m 14,5 km/h (3 Bft) SW 225 0 min 0,000 mm 0,0 UV-I 37 W/m -4,9 C -2,7 C 22,5 km/h (4 Bft) 100,00 %
01.12.2016 09:38 3,3 C 57 % 1026,3 hPa 0,0 l/m 14,8 km/h (3 Bft) SW 230 0 min 0,000 mm 0,0 UV-I 34 W/m -4,4 C -2,9 C 19,3 km/h (3 Bft) 99,31 %
01.12.2016 09:40 3,2 C 58 % 1026,3 hPa 0,0 l/m 13,5 km/h (3 Bft) W 261 0 min 0,000 mm 0,0 UV-I 48 W/m -4,3 C -2,3 C 19,3 km/h (3 Bft) 96,00 %
01.12.2016 09:42 3,2 C 59 % 1026,3 hPa 0,0 l/m 11,5 km/h (2 Bft) W-SW 241 0 min 0,000 mm 0,0 UV-I 46 W/m -4,0 C -1,0 C 20,9 km/h (4 Bft) 97,37 %
01.12.2016 09:44 3,2 C 59 % 1026,3 hPa 0,0 l/m 10,1 km/h (2 Bft) SW 225 0 min 0,000 mm 0,0 UV-I 42 W/m -4,0 C 0,0 C 14,5 km/h (3 Bft) 96,23 %
01.12.2016 09:46 3,2 C 59 % 1026,2 hPa 0,0 l/m 12,5 km/h (3 Bft) SW 234 0 min 0,000 mm 0,0 UV-I 43 W/m -4,0 C -1,6 C 17,7 km/h (3 Bft) 98,00 %
01.12.2016 09:48 3,2 C 59 % 1026,3 hPa 0,0 l/m 12,3 km/h (3 Bft) SW 224 0 min 0,000 mm 0,0 UV-I 48 W/m -4,0 C -1,5 C 16,1 km/h (3 Bft) 97,56 %
01.12.2016 09:50 3,2 C 59 % 1026,3 hPa 0,0 l/m 13,1 km/h (3 Bft) W 259 0 min 0,000 mm 0,0 UV-I 54 W/m -4,0 C -2,0 C 19,3 km/h (3 Bft) 98,00 %
01.12.2016 09:52 3,2 C 60 % 1026,3 hPa 0,0 l/m 14,5 km/h (3 Bft) W-SW 242 0 min 0,000 mm 0,0 UV-I 58 W/m -3,8 C -2,8 C 22,5 km/h (4 Bft) 95,45 %
01.12.2016 09:54 3,3 C 60 % 1026,1 hPa 0,0 l/m 14,9 km/h (3 Bft) S-SW 200 0 min 0,000 mm 0,0 UV-I 55 W/m -3,7 C -2,9 C 24,1 km/h (4 Bft) 97,56 %
01.12.2016 09:56 3,3 C 60 % 1026,3 hPa 0,0 l/m 13,9 km/h (3 Bft) W-SW 239 0 min 0,000 mm 0,0 UV-I 50 W/m -3,7 C -2,4 C 20,9 km/h (4 Bft) 98,00 %
01.12.2016 09:58 3,3 C 60 % 1026,2 hPa 0,0 l/m 15,6 km/h (3 Bft) W-SW 241 0 min 0,000 mm 0,0 UV-I 47 W/m -3,7 C -3,3 C 25,7 km/h (4 Bft) 95,12 %
01.12.2016 10:00 3,4 C 60 % 1026,2 hPa 0,0 l/m 14,5 km/h (3 Bft) SW 228 0 min 0,076 mm 0,0 UV-I 46 W/m -3,6 C -2,6 C 22,5 km/h (4 Bft) 96,61 %
01.12.2016 10:02 3,4 C 61 % 1026,2 hPa 0,0 l/m 13,5 km/h (3 Bft) W-SW 242 0 min 0,000 mm 0,0 UV-I 46 W/m -3,4 C -2,0 C 22,5 km/h (4 Bft) 98,00 %
01.12.2016 10:04 3,4 C 61 % 1026,3 hPa 0,0 l/m 11,2 km/h (2 Bft) W 271 0 min 0,000 mm 0,0 UV-I 45 W/m -3,4 C -0,6 C 17,7 km/h (3 Bft) 97,56 %
01.12.2016 10:06 3,4 C 61 % 1026,2 hPa 0,0 l/m 14,6 km/h (3 Bft) W-SW 241 0 min 0,000 mm 0,0 UV-I 42 W/m -3,4 C -2,6 C 25,7 km/h (4 Bft) 98,11 %
01.12.2016 10:08 3,4 C 61 % 1026,2 hPa 0,0 l/m 14,1 km/h (3 Bft) SW 217 0 min 0,000 mm 0,0 UV-I 44 W/m -3,4 C -2,4 C 19,3 km/h (3 Bft) 97,62 %
01.12.2016 10:10 3,4 C 61 % 1026,2 hPa 0,0 l/m 11,6 km/h (2 Bft) W 260 0 min 0,000 mm 0,0 UV-I 48 W/m -3,4 C -0,8 C 16,1 km/h (3 Bft) 95,92 %
01.12.2016 10:12 3,4 C 61 % 1026,1 hPa 0,0 l/m 13,5 km/h (3 Bft) W-SW 242 0 min 0,000 mm 0,0 UV-I 52 W/m -3,4 C -2,0 C 20,9 km/h (4 Bft) 95,83 %
01.12.2016 10:14 3,4 C 59 % 1026,0 hPa 0,0 l/m 14,5 km/h (3 Bft) W-SW 245 0 min 0,000 mm 0,0 UV-I 54 W/m -3,8 C -2,6 C 20,9 km/h (4 Bft) 95,74 %
01.12.2016 10:16 3,5 C 58 % 1026,1 hPa 0,0 l/m 17,8 km/h (3 Bft) W 262 0 min 0,000 mm 0,0 UV-I 54 W/m -4,0 C -4,1 C 25,7 km/h (4 Bft) 97,37 %
01.12.2016 10:20 3,7 C 57 % 1026,1 hPa 0,0 l/m 14,5 km/h (3 Bft) W-SW 247 0 min 0,000 mm 0,0 UV-I 54 W/m -4,0 C -2,2 C 25,7 km/h (4 Bft) 97,37 %
01.12.2016 10:26 3,8 C 55 % 1026,0 hPa 0,0 l/m 12,0 km/h (2 Bft) W-SW 247 0 min 0,000 mm 0,0 UV-I 56 W/m -4,4 C -0,6 C 17,7 km/h (3 Bft) 99,57 %
01.12.2016 10:28 3,8 C 55 % 1026,0 hPa 0,0 l/m 12,8 km/h (3 Bft) W-SW 244 0 min 0,000 mm 0,0 UV-I 55 W/m -4,4 C -1,1 C 22,5 km/h (4 Bft) 97,37 %
01.12.2016 10:30 3,8 C 54 % 1026,1 hPa 0,0 l/m 16,5 km/h (3 Bft) W 259 0 min 0,000 mm 0,0 UV-I 53 W/m -4,6 C -3,1 C 24,1 km/h (4 Bft) 100,00 %
01.12.2016 10:32 3,8 C 54 % 1025,9 hPa 0,0 l/m 11,9 km/h (2 Bft) W 270 0 min 0,000 mm 0,0 UV-I 54 W/m -4,6 C -0,6 C 17,7 km/h (3 Bft) 100,00 %
01.12.2016 10:34 3,8 C 54 % 1026,0 hPa 0,0 l/m 16,7 km/h (3 Bft) W 261 0 min 0,000 mm 0,0 UV-I 53 W/m -4,6 C -3,2 C 22,5 km/h (4 Bft) 100,00 %
01.12.2016 10:36 3,9 C 53 % 1025,9 hPa 0,0 l/m 17,8 km/h (3 Bft) SW 236 0 min 0,000 mm 0,0 UV-I 54 W/m -4,8 C -3,6 C 24,1 km/h (4 Bft) 97,37 %
01.12.2016 10:38 3,9 C 53 % 1025,9 hPa 0,0 l/m 16,1 km/h (3 Bft) W-SW 258 0 min 0,000 mm 0,0 UV-I 56 W/m -4,8 C -2,8 C 20,9 km/h (4 Bft) 100,00 %
01.12.2016 10:40 3,9 C 52 % 1025,9 hPa 0,0 l/m 15,6 km/h (3 Bft) W 271 0 min 0,000 mm 0,0 UV-I 57 W/m -5,0 C -2,6 C 27,4 km/h (4 Bft) 100,00 %
01.12.2016 10:42 4,0 C 53 % 1025,8 hPa 0,0 l/m 16,6 km/h (3 Bft) W 261 0 min 0,000 mm 0,0 UV-I 58 W/m -4,7 C -2,9 C 29,0 km/h (5 Bft) 100,00 %
01.12.2016 10:44 4,0 C 53 % 1026,0 hPa 0,0 l/m 14,7 km/h (3 Bft) W-SW 256 0 min 0,000 mm 0,0 UV-I 52 W/m -4,7 C -2,0 C 22,5 km/h (4 Bft) 100,00 %
01.12.2016 10:46 4,0 C 53 % 1025,9 hPa 0,0 l/m 13,7 km/h (3 Bft) W-SW 242 0 min 0,000 mm 0,0 UV-I 47 W/m -4,7 C -1,4 C 19,3 km/h (3 Bft) 100,00 %
01.12.2016 10:48 4,0 C 54 % 1025,9 hPa 0,0 l/m 14,0 km/h (3 Bft) W-SW 246 0 min 0,000 mm 0,0 UV-I 47 W/m -4,4 C -1,6 C 19,3 km/h (3 Bft) 100,00 %
01.12.2016 10:50 4,1 C 54 % 1025,9 hPa 0,0 l/m 14,9 km/h (3 Bft) W-NW 283 0 min 0,000 mm 0,0 UV-I 53 W/m -4,4 C -2,0 C 20,9 km/h (4 Bft) 100,00 %
01.12.2016 10:52 4,1 C 55 % 1025,9 hPa 0,0 l/m 13,1 km/h (3 Bft) SW 232 0 min 0,000 mm 0,0 UV-I 58 W/m -4,1 C -1,0 C 17,7 km/h (3 Bft) 100,00 %
01.12.2016 10:54 4,1 C 55 % 1025,9 hPa 0,0 l/m 13,1 km/h (3 Bft) W 262 0 min 0,000 mm 0,0 UV-I 62 W/m -4,1 C -1,0 C 19,3 km/h (3 Bft) 98,11 %
01.12.2016 10:56 4,1 C 56 % 1025,9 hPa 0,0 l/m 10,8 km/h (2 Bft) W 261 0 min 0,000 mm 0,0 UV-I 62 W/m -3,9 C 0,5 C 16,1 km/h (3 Bft) 100,00 %
01.12.2016 10:58 4,1 C 56 % 1025,9 hPa 0,0 l/m 13,5 km/h (3 Bft) W 266 0 min 0,000 mm 0,0 UV-I 60 W/m -3,9 C -1,2 C 19,3 km/h (3 Bft) 100,00 %
01.12.2016 11:00 4,1 C 56 % 1025,9 hPa 0,0 l/m 16,2 km/h (3 Bft) W 273 0 min 0,076 mm 0,0 UV-I 63 W/m -3,9 C -2,6 C 27,4 km/h (4 Bft) 100,00 %
01.12.2016 11:02 4,2 C 54 % 1025,8 hPa 0,0 l/m 16,8 km/h (3 Bft) W 260 0 min 0,000 mm 0,0 UV-I 67 W/m -4,3 C -2,8 C 27,4 km/h (4 Bft) 100,00 %
01.12.2016 11:04 4,2 C 53 % 1025,8 hPa 0,0 l/m 14,8 km/h (3 Bft) W 265 0 min 0,000 mm 0,0 UV-I 67 W/m -4,5 C -1,8 C 24,1 km/h (4 Bft) 100,00 %
01.12.2016 11:06 4,3 C 52 % 1025,7 hPa 0,0 l/m 14,8 km/h (3 Bft) W-SW 254 0 min 0,000 mm 0,0 UV-I 69 W/m -4,7 C -1,7 C 22,5 km/h (4 Bft) 100,00 %
01.12.2016 11:08 4,3 C 52 % 1025,6 hPa 0,0 l/m 12,8 km/h (3 Bft) SW 234 0 min 0,000 mm 0,0 UV-I 72 W/m -4,7 C -0,5 C 19,3 km/h (3 Bft) 100,00 %
01.12.2016 11:10 4,3 C 50 % 1025,6 hPa 0,0 l/m 15,2 km/h (3 Bft) W 267 0 min 0,000 mm 0,0 UV-I 73 W/m -5,2 C -1,9 C 30,6 km/h (5 Bft) 98,21 %
01.12.2016 11:12 4,4 C 49 % 1025,5 hPa 0,0 l/m 15,5 km/h (3 Bft) W-SW 257 0 min 0,000 mm 0,0 UV-I 70 W/m -5,4 C -1,9 C 22,5 km/h (4 Bft) 100,00 %
01.12.2016 11:14 4,4 C 48 % 1025,4 hPa 0,0 l/m 15,0 km/h (3 Bft) W-SW 249 0 min 0,000 mm 0,0 UV-I 75 W/m -5,6 C -1,7 C 25,7 km/h (4 Bft) 97,14 %
01.12.2016 11:16 4,5 C 47 % 1025,4 hPa 0,0 l/m 15,1 km/h (3 Bft) SW 221 0 min 0,000 mm 0,0 UV-I 77 W/m -5,8 C -1,6 C 19,3 km/h (3 Bft) 100,00 %
01.12.2016 11:18 4,5 C 47 % 1025,3 hPa 0,0 l/m 13,3 km/h (3 Bft) W-SW 256 0 min 0,000 mm 0,0 UV-I 81 W/m -5,8 C -0,6 C 20,9 km/h (4 Bft) 100,00 %
01.12.2016 11:20 4,6 C 48 % 1025,2 hPa 0,0 l/m 17,2 km/h (3 Bft) W-NW 290 0 min 0,000 mm 0,0 UV-I 84 W/m -5,4 C -2,5 C 24,1 km/h (4 Bft) 100,00 %
01.12.2016 11:22 4,6 C 49 % 1025,3 hPa 0,0 l/m 16,8 km/h (3 Bft) W-SW 248 0 min 0,000 mm 0,0 UV-I 83 W/m -5,2 C -2,3 C 24,1 km/h (4 Bft) 100,00 %
01.12.2016 11:24 4,6 C 47 % 1025,2 hPa 0,0 l/m 20,4 km/h (4 Bft) W 264 0 min 0,000 mm 0,0 UV-I 83 W/m -5,7 C -3,8 C 29,0 km/h (5 Bft) 97,62 %
01.12.2016 11:26 4,7 C 48 % 1025,2 hPa 0,0 l/m 16,4 km/h (3 Bft) SW 236 0 min 0,000 mm 0,0 UV-I 87 W/m -5,4 C -2,0 C 24,1 km/h (4 Bft) 98,11 %
01.12.2016 11:28 4,7 C 48 % 1025,1 hPa 0,0 l/m 18,0 km/h (3 Bft) W-SW 253 0 min 0,000 mm 0,0 UV-I 96 W/m -5,4 C -2,7 C 24,1 km/h (4 Bft) 100,00 %
01.12.2016 11:30 4,7 C 47 % 1025,1 hPa 0,0 l/m 18,3 km/h (3 Bft) W-SW 247 0 min 0,000 mm 0,0 UV-I 100 W/m -5,6 C -2,9 C 25,7 km/h (4 Bft) 100,00 %
01.12.2016 11:32 4,7 C 48 % 1025,0 hPa 0,0 l/m 19,3 km/h (3 Bft) W-SW 257 0 min 0,000 mm 0,0 UV-I 108 W/m -5,4 C -3,3 C 27,4 km/h (4 Bft) 97,62 %
01.12.2016 11:34 4,7 C 48 % 1024,9 hPa 0,0 l/m 20,2 km/h (4 Bft) W 259 0 min 0,000 mm 0,0 UV-I 118 W/m -5,4 C -3,6 C 30,6 km/h (5 Bft) 100,00 %
01.12.2016 11:36 4,8 C 48 % 1024,8 hPa 0,0 l/m 17,7 km/h (3 Bft) W-SW 247 0 min 0,000 mm 0,0 UV-I 123 W/m -5,3 C -2,5 C 29,0 km/h (5 Bft) 100,00 %
01.12.2016 11:38 4,8 C 46 % 1024,7 hPa 0,0 l/m 20,5 km/h (4 Bft) W-SW 246 0 min 0,000 mm 0,0 UV-I 120 W/m -5,8 C -3,6 C 30,6 km/h (5 Bft) 98,11 %
01.12.2016 11:40 4,8 C 46 % 1024,7 hPa 0,0 l/m 18,5 km/h (3 Bft) W-SW 252 0 min 0,000 mm 0,0 UV-I 103 W/m -5,8 C -2,8 C 27,4 km/h (4 Bft) 100,00 %
01.12.2016 11:42 4,8 C 46 % 1024,7 hPa 0,0 l/m 16,6 km/h (3 Bft) W-SW 250 0 min 0,000 mm 0,0 UV-I 105 W/m -5,8 C -2,0 C 25,7 km/h (4 Bft) 97,56 %
01.12.2016 11:44 4,8 C 46 % 1024,5 hPa 0,0 l/m 19,2 km/h (3 Bft) W-SW 250 0 min 0,000 mm 0,0 UV-I 114 W/m -5,8 C -3,1 C 32,2 km/h (5 Bft) 98,00 %
01.12.2016 11:46 4,8 C 46 % 1024,4 hPa 0,0 l/m 19,7 km/h (3 Bft) W-SW 257 0 min 0,000 mm 0,0 UV-I 116 W/m -5,8 C -3,3 C 29,0 km/h (5 Bft) 100,00 %
01.12.2016 11:48 4,8 C 45 % 1024,4 hPa 0,0 l/m 26,7 km/h (4 Bft) W 274 0 min 0,000 mm 0,0 UV-I 108 W/m -6,1 C -5,7 C 38,6 km/h (5 Bft) 97,56 %
01.12.2016 11:50 4,9 C 46 % 1024,5 hPa 0,0 l/m 22,5 km/h (4 Bft) W-SW 238 0 min 0,000 mm 0,0 UV-I 103 W/m -5,7 C -4,2 C 30,6 km/h (5 Bft) 98,00 %
01.12.2016 11:52 4,8 C 46 % 1024,5 hPa 0,0 l/m 25,1 km/h (4 Bft) W 271 0 min 0,000 mm 0,0 UV-I 106 W/m -5,8 C -5,2 C 35,4 km/h (5 Bft) 98,11 %
01.12.2016 11:54 4,8 C 44 % 1024,5 hPa 0,0 l/m 27,4 km/h (4 Bft) SW 223 0 min 0,000 mm 0,0 UV-I 113 W/m -6,4 C -5,9 C 41,8 km/h (6 Bft) 94,74 %
01.12.2016 11:56 4,9 C 44 % 1024,5 hPa 0,0 l/m 22,7 km/h (4 Bft) W-SW 256 0 min 0,000 mm 0,0 UV-I 112 W/m -6,3 C -4,3 C 38,6 km/h (5 Bft) 98,21 %
01.12.2016 11:58 4,9 C 43 % 1024,5 hPa 0,0 l/m 26,6 km/h (4 Bft) W-SW 256 0 min 0,000 mm 0,0 UV-I 109 W/m -6,6 C -5,6 C 43,5 km/h (6 Bft) 97,37 %
01.12.2016 12:00 4,9 C 44 % 1024,5 hPa 0,0 l/m 20,5 km/h (4 Bft) W-SW 238 0 min 0,127 mm 0,0 UV-I 108 W/m -6,3 C -3,5 C 30,6 km/h (5 Bft) 96,43 %
01.12.2016 12:02 4,9 C 44 % 1024,4 hPa 0,0 l/m 25,0 km/h (4 Bft) W-SW 248 0 min 0,000 mm 0,0 UV-I 113 W/m -6,3 C -5,1 C 40,2 km/h (6 Bft) 100,00 %
01.12.2016 12:04 4,9 C 43 % 1024,4 hPa 0,0 l/m 24,1 km/h (4 Bft) W 261 0 min 0,000 mm 0,0 UV-I 117 W/m -6,6 C -4,8 C 33,8 km/h (5 Bft) 95,74 %
01.12.2016 12:06 4,8 C 44 % 1024,3 hPa 0,0 l/m 19,1 km/h (3 Bft) W 263 0 min 0,000 mm 0,0 UV-I 125 W/m -6,4 C -3,1 C 25,7 km/h (4 Bft) 98,21 %
01.12.2016 12:08 4,8 C 44 % 1024,3 hPa 0,0 l/m 22,4 km/h (4 Bft) W-SW 254 0 min 0,000 mm 0,0 UV-I 132 W/m -6,4 C -4,3 C 32,2 km/h (5 Bft) 95,45 %
01.12.2016 12:10 4,8 C 45 % 1024,3 hPa 0,0 l/m 24,3 km/h (4 Bft) W-SW 257 0 min 0,000 mm 0,0 UV-I 135 W/m -6,1 C -5,0 C 48,3 km/h (6 Bft) 95,24 %
01.12.2016 12:12 4,9 C 45 % 1024,2 hPa 0,0 l/m 24,1 km/h (4 Bft) W-SW 250 0 min 0,000 mm 0,0 UV-I 134 W/m -6,0 C -4,8 C 43,5 km/h (6 Bft) 98,11 %
01.12.2016 12:14 4,9 C 45 % 1024,2 hPa 0,0 l/m 30,5 km/h (5 Bft) SW 214 0 min 0,000 mm 0,0 UV-I 132 W/m -6,0 C -6,6 C 43,5 km/h (6 Bft) 97,87 %
01.12.2016 12:16 4,9 C 44 % 1024,3 hPa 0,0 l/m 29,8 km/h (5 Bft) W 270 0 min 0,000 mm 0,0 UV-I 125 W/m -6,3 C -6,5 C 45,1 km/h (6 Bft) 97,87 %
01.12.2016 12:18 4,9 C 45 % 1024,2 hPa 0,0 l/m 21,9 km/h (4 Bft) W-SW 243 0 min 0,000 mm 0,0 UV-I 121 W/m -6,0 C -4,0 C 37,0 km/h (5 Bft) 95,74 %
01.12.2016 12:20 4,9 C 46 % 1024,1 hPa 0,0 l/m 23,2 km/h (4 Bft) S-SW 210 0 min 0,000 mm 0,0 UV-I 124 W/m -5,7 C -4,5 C 32,2 km/h (5 Bft) 97,37 %
01.12.2016 12:22 4,9 C 48 % 1024,1 hPa 0,0 l/m 23,4 km/h (4 Bft) W-SW 238 0 min 0,000 mm 0,0 UV-I 130 W/m -5,2 C -4,6 C 38,6 km/h (5 Bft) 98,11 %
01.12.2016 12:24 4,9 C 49 % 1024,1 hPa 0,0 l/m 23,4 km/h (4 Bft) W-SW 252 0 min 0,000 mm 0,0 UV-I 131 W/m -4,9 C -4,6 C 37,0 km/h (5 Bft) 100,00 %
01.12.2016 12:26 4,9 C 50 % 1024,1 hPa 0,0 l/m 20,4 km/h (4 Bft) W-SW 254 0 min 0,000 mm 0,0 UV-I 135 W/m -4,6 C -3,5 C 33,8 km/h (5 Bft) 100,00 %
01.12.2016 12:28 4,9 C 49 % 1024,0 hPa 0,0 l/m 25,4 km/h (4 Bft) SW 235 0 min 0,000 mm 0,0 UV-I 133 W/m -4,9 C -5,2 C 37,0 km/h (5 Bft) 100,00 %
01.12.2016 12:30 4,9 C 49 % 1024,0 hPa 0,0 l/m 26,9 km/h (4 Bft) N 355 0 min 0,000 mm 0,0 UV-I 128 W/m -4,9 C -5,7 C 43,5 km/h (6 Bft) 98,00 %
01.12.2016 12:32 4,9 C 50 % 1024,0 hPa 0,0 l/m 20,5 km/h (4 Bft) W-SW 258 0 min 0,000 mm 0,0 UV-I 118 W/m -4,6 C -3,5 C 32,2 km/h (5 Bft) 100,00 %
01.12.2016 12:34 4,9 C 51 % 1023,8 hPa 0,0 l/m 19,8 km/h (3 Bft) W-SW 247 0 min 0,000 mm 0,0 UV-I 111 W/m -4,4 C -3,2 C 27,4 km/h (4 Bft) 100,00 %
01.12.2016 12:36 4,9 C 53 % 1023,7 hPa 0,0 l/m 27,4 km/h (4 Bft) W-SW 244 0 min 0,000 mm 0,0 UV-I 107 W/m -3,9 C -5,8 C 40,2 km/h (6 Bft) 100,00 %
01.12.2016 12:38 4,9 C 54 % 1023,7 hPa 0,0 l/m 28,2 km/h (4 Bft) W-SW 250 0 min 0,000 mm 0,0 UV-I 98 W/m -3,6 C -6,0 C 41,8 km/h (6 Bft) 96,00 %
01.12.2016 12:40 4,8 C 54 % 1023,8 hPa 0,0 l/m 17,4 km/h (3 Bft) W-SW 251 0 min 0,000 mm 0,0 UV-I 89 W/m -3,7 C -2,3 C 29,0 km/h (5 Bft) 100,00 %
01.12.2016 12:42 4,8 C 54 % 1023,8 hPa 0,0 l/m 24,7 km/h (4 Bft) W-SW 250 0 min 0,000 mm 0,0 UV-I 91 W/m -3,7 C -5,1 C 43,5 km/h (6 Bft) 100,00 %
01.12.2016 12:44 4,8 C 56 % 1023,7 hPa 0,0 l/m 22,6 km/h (4 Bft) W 273 0 min 0,000 mm 0,0 UV-I 97 W/m -3,2 C -4,4 C 45,1 km/h (6 Bft) 100,00 %
01.12.2016 12:46 4,8 C 56 % 1023,7 hPa 0,0 l/m 23,3 km/h (4 Bft) W 269 0 min 0,000 mm 0,0 UV-I 104 W/m -3,2 C -4,7 C 29,0 km/h (5 Bft) 100,00 %
01.12.2016 12:48 4,8 C 57 % 1023,6 hPa 0,0 l/m 22,0 km/h (4 Bft) SW 221 0 min 0,000 mm 0,0 UV-I 100 W/m -3,0 C -4,2 C 38,6 km/h (5 Bft) 100,00 %
01.12.2016 12:50 4,8 C 58 % 1023,7 hPa 0,0 l/m 20,8 km/h (4 Bft) W 259 0 min 0,000 mm 0,0 UV-I 92 W/m -2,7 C -3,7 C 32,2 km/h (5 Bft) 100,00 %
01.12.2016 12:52 4,8 C 59 % 1023,7 hPa 0,0 l/m 21,4 km/h (4 Bft) SW 236 0 min 0,000 mm 0,0 UV-I 80 W/m -2,5 C -4,0 C 38,6 km/h (5 Bft) 98,00 %
01.12.2016 12:54 4,8 C 59 % 1023,7 hPa 0,0 l/m 21,1 km/h (4 Bft) W 260 0 min 0,000 mm 0,0 UV-I 74 W/m -2,5 C -3,9 C 33,8 km/h (5 Bft) 100,00 %
01.12.2016 12:56 4,8 C 60 % 1023,6 hPa 0,0 l/m 19,2 km/h (3 Bft) W-SW 244 0 min 0,000 mm 0,0 UV-I 77 W/m -2,3 C -3,1 C 32,2 km/h (5 Bft) 100,00 %
01.12.2016 12:58 4,7 C 60 % 1023,7 hPa 0,0 l/m 23,0 km/h (4 Bft) W-SW 250 0 min 0,000 mm 0,0 UV-I 86 W/m -2,4 C -4,7 C 35,4 km/h (5 Bft) 100,00 %
01.12.2016 13:00 4,7 C 61 % 1023,8 hPa 0,0 l/m 19,7 km/h (3 Bft) W-SW 258 0 min 0,152 mm 0,0 UV-I 88 W/m -2,2 C -3,4 C 37,0 km/h (5 Bft) 100,00 %
01.12.2016 13:02 4,7 C 61 % 1023,8 hPa 0,0 l/m 23,5 km/h (4 Bft) W-SW 244 0 min 0,000 mm 0,0 UV-I 78 W/m -2,2 C -4,9 C 32,2 km/h (5 Bft) 97,37 %
01.12.2016 13:04 4,7 C 61 % 1023,8 hPa 0,0 l/m 14,5 km/h (3 Bft) W 273 0 min 0,000 mm 0,0 UV-I 69 W/m -2,2 C -1,0 C 20,9 km/h (4 Bft) 98,21 %
01.12.2016 13:06 4,7 C 62 % 1023,7 hPa 0,2 l/m 24,3 km/h (4 Bft) W-NW 295 0 min 0,000 mm 0,0 UV-I 60 W/m -1,9 C -5,1 C 45,1 km/h (6 Bft) 100,00 %
01.12.2016 13:08 4,7 C 62 % 1023,7 hPa 0,0 l/m 20,5 km/h (4 Bft) W-SW 240 0 min 0,000 mm 0,0 UV-I 62 W/m -1,9 C -3,8 C 30,6 km/h (5 Bft) 98,59 %
01.12.2016 13:10 4,7 C 62 % 1023,6 hPa 0,0 l/m 20,0 km/h (4 Bft) SW 219 0 min 0,000 mm 0,0 UV-I 58 W/m -1,9 C -3,6 C 32,2 km/h (5 Bft) 100,00 %
01.12.2016 13:12 4,7 C 63 % 1023,5 hPa 0,0 l/m 25,3 km/h (4 Bft) W-SW 249 0 min 0,000 mm 0,0 UV-I 62 W/m -1,7 C -5,4 C 41,8 km/h (6 Bft) 100,00 %
01.12.2016 13:14 4,7 C 64 % 1023,5 hPa 0,0 l/m 14,8 km/h (3 Bft) W-SW 240 0 min 0,000 mm 0,0 UV-I 71 W/m -1,5 C -1,2 C 27,4 km/h (4 Bft) 97,37 %
01.12.2016 13:16 4,6 C 64 % 1023,3 hPa 0,0 l/m 17,6 km/h (3 Bft) W 269 0 min 0,000 mm 0,0 UV-I 70 W/m -1,6 C -2,7 C 33,8 km/h (5 Bft) 100,00 %
01.12.2016 13:18 4,6 C 64 % 1023,3 hPa 0,0 l/m 21,4 km/h (4 Bft) W-SW 247 0 min 0,000 mm 0,0 UV-I 71 W/m -1,6 C -4,2 C 32,2 km/h (5 Bft) 100,00 %
01.12.2016 13:20 4,6 C 64 % 1023,2 hPa 0,0 l/m 25,3 km/h (4 Bft) W-SW 250 0 min 0,000 mm 0,0 UV-I 74 W/m -1,6 C -5,6 C 35,4 km/h (5 Bft) 97,73 %
01.12.2016 13:22 4,6 C 64 % 1023,1 hPa 0,0 l/m 23,1 km/h (4 Bft) W-SW 250 0 min 0,000 mm 0,0 UV-I 82 W/m -1,6 C -4,8 C 32,2 km/h (5 Bft) 100,00 %
01.12.2016 13:24 4,6 C 64 % 1023,1 hPa 0,0 l/m 20,8 km/h (4 Bft) W-SW 250 0 min 0,000 mm 0,0 UV-I 72 W/m -1,6 C -4,0 C 27,4 km/h (4 Bft) 100,00 %
01.12.2016 13:26 4,6 C 64 % 1023,1 hPa 0,0 l/m 24,1 km/h (4 Bft) W-SW 247 0 min 0,000 mm 0,0 UV-I 67 W/m -1,6 C -5,2 C 37,0 km/h (5 Bft) 97,56 %
01.12.2016 13:28 4,6 C 64 % 1023,0 hPa 0,0 l/m 22,1 km/h (4 Bft) W-SW 245 0 min 0,000 mm 0,0 UV-I 73 W/m -1,6 C -4,5 C 33,8 km/h (5 Bft) 100,00 %
01.12.2016 13:30 4,5 C 64 % 1022,9 hPa 0,0 l/m 26,9 km/h (4 Bft) W 263 0 min 0,000 mm 0,0 UV-I 78 W/m -1,7 C -6,2 C 41,8 km/h (6 Bft) 100,00 %
01.12.2016 13:32 4,5 C 63 % 1022,9 hPa 0,0 l/m 24,6 km/h (4 Bft) W-SW 244 0 min 0,000 mm 0,0 UV-I 86 W/m -1,9 C -5,5 C 38,6 km/h (5 Bft) 98,21 %
01.12.2016 13:34 4,6 C 63 % 1023,0 hPa 0,0 l/m 22,0 km/h (4 Bft) W-SW 239 0 min 0,000 mm 0,0 UV-I 90 W/m -1,8 C -4,5 C 30,6 km/h (5 Bft) 100,00 %
01.12.2016 13:36 4,6 C 64 % 1022,9 hPa 0,0 l/m 20,1 km/h (4 Bft) W 268 0 min 0,000 mm 0,0 UV-I 80 W/m -1,6 C -3,7 C 37,0 km/h (5 Bft) 100,00 %
01.12.2016 13:38 4,5 C 65 % 1022,9 hPa 0,0 l/m 19,4 km/h (3 Bft) W-SW 254 0 min 0,000 mm 0,0 UV-I 64 W/m -1,5 C -3,6 C 25,7 km/h (4 Bft) 100,00 %
01.12.2016 13:40 4,5 C 66 % 1023,0 hPa 0,0 l/m 23,7 km/h (4 Bft) W-SW 250 0 min 0,000 mm 0,0 UV-I 56 W/m -1,3 C -5,2 C 32,2 km/h (5 Bft) 100,00 %
01.12.2016 13:42 4,5 C 66 % 1023,0 hPa 0,0 l/m 22,9 km/h (4 Bft) W-SW 252 0 min 0,000 mm 0,0 UV-I 53 W/m -1,3 C -4,9 C 30,6 km/h (5 Bft) 96,00 %
01.12.2016 13:44 4,4 C 66 % 1023,1 hPa 0,0 l/m 22,1 km/h (4 Bft) W-SW 244 0 min 0,000 mm 0,0 UV-I 47 W/m -1,4 C -4,8 C 35,4 km/h (5 Bft) 97,73 %
01.12.2016 13:46 4,4 C 66 % 1023,2 hPa 0,0 l/m 21,5 km/h (4 Bft) SW 228 0 min 0,000 mm 0,0 UV-I 45 W/m -1,4 C -4,5 C 35,4 km/h (5 Bft) 100,00 %
01.12.2016 13:48 4,4 C 66 % 1023,1 hPa 0,0 l/m 19,2 km/h (3 Bft) W-SW 257 0 min 0,000 mm 0,0 UV-I 53 W/m -1,4 C -3,6 C 32,2 km/h (5 Bft) 100,00 %
01.12.2016 13:50 4,4 C 66 % 1023,2 hPa 0,0 l/m 20,0 km/h (4 Bft) W-SW 247 0 min 0,000 mm 0,0 UV-I 52 W/m -1,4 C -3,9 C 30,6 km/h (5 Bft) 97,56 %
01.12.2016 13:52 4,4 C 67 % 1023,2 hPa 0,0 l/m 18,7 km/h (3 Bft) W 264 0 min 0,000 mm 0,0 UV-I 50 W/m -1,2 C -3,4 C 25,7 km/h (4 Bft) 98,11 %
01.12.2016 13:54 4,4 C 67 % 1023,1 hPa 0,0 l/m 19,9 km/h (4 Bft) SW 232 0 min 0,000 mm 0,0 UV-I 51 W/m -1,2 C -3,9 C 29,0 km/h (5 Bft) 97,56 %
01.12.2016 13:56 4,4 C 67 % 1023,1 hPa 0,0 l/m 23,2 km/h (4 Bft) W 261 0 min 0,000 mm 0,0 UV-I 48 W/m -1,2 C -5,2 C 30,6 km/h (5 Bft) 96,23 %
01.12.2016 13:58 4,4 C 67 % 1023,1 hPa 0,0 l/m 19,4 km/h (3 Bft) W-SW 251 0 min 0,000 mm 0,0 UV-I 48 W/m -1,2 C -3,7 C 27,4 km/h (4 Bft) 95,45 %
01.12.2016 14:00 4,4 C 68 % 1023,0 hPa 0,0 l/m 19,2 km/h (3 Bft) W 259 0 min 0,000 mm 0,0 UV-I 46 W/m -1,0 C -3,6 C 30,6 km/h (5 Bft) 97,56 %
01.12.2016 14:02 4,4 C 68 % 1022,9 hPa 0,0 l/m 20,0 km/h (4 Bft) W-SW 250 0 min 0,102 mm 0,0 UV-I 48 W/m -1,0 C -3,9 C 30,6 km/h (5 Bft) 94,92 %
01.12.2016 14:04 4,4 C 68 % 1022,9 hPa 0,0 l/m 20,8 km/h (4 Bft) W-SW 253 0 min 0,000 mm 0,0 UV-I 49 W/m -1,0 C -4,3 C 32,2 km/h (5 Bft) 97,44 %
01.12.2016 14:06 4,3 C 69 % 1022,8 hPa 0,0 l/m 22,0 km/h (4 Bft) W-SW 256 0 min 0,000 mm 0,0 UV-I 48 W/m -0,9 C -4,9 C 32,2 km/h (5 Bft) 98,18 %
01.12.2016 14:08 4,4 C 69 % 1022,9 hPa 0,0 l/m 20,7 km/h (4 Bft) W-SW 240 0 min 0,000 mm 0,0 UV-I 44 W/m -0,8 C -4,2 C 27,4 km/h (4 Bft) 97,62 %
01.12.2016 14:10 4,3 C 69 % 1022,9 hPa 0,0 l/m 18,9 km/h (3 Bft) W-SW 252 0 min 0,000 mm 0,0 UV-I 41 W/m -0,9 C -3,6 C 29,0 km/h (5 Bft) 97,37 %
01.12.2016 14:12 4,4 C 69 % 1022,9 hPa 0,0 l/m 21,6 km/h (4 Bft) W-SW 242 0 min 0,000 mm 0,0 UV-I 39 W/m -0,8 C -4,6 C 35,4 km/h (5 Bft) 96,00 %
01.12.2016 14:14 4,3 C 69 % 1023,0 hPa 0,0 l/m 17,4 km/h (3 Bft) W-SW 237 0 min 0,000 mm 0,0 UV-I 36 W/m -0,9 C -3,0 C 25,7 km/h (4 Bft) 97,87 %
01.12.2016 14:16 4,3 C 69 % 1023,0 hPa 0,0 l/m 16,2 km/h (3 Bft) SW 216 0 min 0,000 mm 0,0 UV-I 40 W/m -0,9 C -2,4 C 30,6 km/h (5 Bft) 95,74 %
01.12.2016 14:18 4,3 C 69 % 1022,9 hPa 0,0 l/m 21,5 km/h (4 Bft) W 266 0 min 0,000 mm 0,0 UV-I 40 W/m -0,9 C -4,7 C 33,8 km/h (5 Bft) 98,00 %
01.12.2016 14:20 4,4 C 69 % 1022,9 hPa 0,0 l/m 23,5 km/h (4 Bft) W 261 0 min 0,000 mm 0,0 UV-I 44 W/m -0,8 C -5,3 C 33,8 km/h (5 Bft) 95,45 %
01.12.2016 14:22 4,4 C 69 % 1022,8 hPa 0,0 l/m 20,2 km/h (4 Bft) SW 232 0 min 0,000 mm 0,0 UV-I 48 W/m -0,8 C -4,0 C 27,4 km/h (4 Bft) 96,23 %
01.12.2016 14:24 4,4 C 70 % 1022,8 hPa 0,0 l/m 20,3 km/h (4 Bft) W 259 0 min 0,000 mm 0,0 UV-I 48 W/m -0,6 C -4,1 C 27,4 km/h (4 Bft) 94,74 %
01.12.2016 14:26 4,3 C 70 % 1022,8 hPa 0,0 l/m 20,8 km/h (4 Bft) SW 236 0 min 0,000 mm 0,0 UV-I 52 W/m -0,7 C -4,4 C 29,0 km/h (5 Bft) 98,21 %
01.12.2016 14:28 4,4 C 69 % 1022,7 hPa 0,0 l/m 22,5 km/h (4 Bft) W-SW 248 0 min 0,000 mm 0,0 UV-I 54 W/m -0,8 C -4,9 C 37,0 km/h (5 Bft) 100,00 %
01.12.2016 14:30 4,4 C 70 % 1022,6 hPa 0,0 l/m 22,3 km/h (4 Bft) W-SW 254 0 min 0,000 mm 0,0 UV-I 53 W/m -0,6 C -4,8 C 32,2 km/h (5 Bft) 100,00 %
01.12.2016 14:32 4,4 C 70 % 1022,6 hPa 0,0 l/m 20,0 km/h (4 Bft) W-SW 252 0 min 0,000 mm 0,0 UV-I 55 W/m -0,6 C -3,9 C 30,6 km/h (5 Bft) 100,00 %
01.12.2016 14:34 4,4 C 70 % 1022,6 hPa 0,0 l/m 22,0 km/h (4 Bft) W 272 0 min 0,000 mm 0,0 UV-I 54 W/m -0,6 C -4,7 C 29,0 km/h (5 Bft) 100,00 %
01.12.2016 14:36 4,4 C 70 % 1022,6 hPa 0,0 l/m 22,2 km/h (4 Bft) W-SW 253 0 min 0,000 mm 0,0 UV-I 54 W/m -0,6 C -4,8 C 29,0 km/h (5 Bft) 97,37 %
01.12.2016 14:38 4,4 C 70 % 1022,7 hPa 0,0 l/m 23,5 km/h (4 Bft) W 281 0 min 0,000 mm 0,0 UV-I 48 W/m -0,6 C -5,3 C 32,2 km/h (5 Bft) 100,00 %
01.12.2016 14:40 4,4 C 70 % 1022,7 hPa 0,0 l/m 21,3 km/h (4 Bft) W-NW 290 0 min 0,000 mm 0,0 UV-I 47 W/m -0,6 C -4,5 C 29,0 km/h (5 Bft) 100,00 %
01.12.2016 14:42 4,4 C 70 % 1022,7 hPa 0,0 l/m 20,9 km/h (4 Bft) SW 222 0 min 0,000 mm 0,0 UV-I 45 W/m -0,6 C -4,3 C 30,6 km/h (5 Bft) 100,00 %
01.12.2016 14:44 4,4 C 71 % 1022,6 hPa 0,0 l/m 24,5 km/h (4 Bft) S-SW 192 0 min 0,000 mm 0,0 UV-I 42 W/m -0,4 C -5,6 C 43,5 km/h (6 Bft) 100,00 %
01.12.2016 14:46 4,4 C 71 % 1022,7 hPa 0,0 l/m 19,5 km/h (3 Bft) SW 226 0 min 0,000 mm 0,0 UV-I 40 W/m -0,4 C -3,7 C 30,6 km/h (5 Bft) 100,00 %
01.12.2016 14:48 4,4 C 71 % 1022,7 hPa 0,0 l/m 25,0 km/h (4 Bft) W-SW 250 0 min 0,000 mm 0,0 UV-I 40 W/m -0,4 C -5,8 C 43,5 km/h (6 Bft) 100,00 %
01.12.2016 14:50 4,4 C 71 % 1022,7 hPa 0,0 l/m 16,5 km/h (3 Bft) N-NW 329 0 min 0,000 mm 0,0 UV-I 40 W/m -0,4 C -2,4 C 27,4 km/h (4 Bft) 100,00 %
01.12.2016 14:52 4,4 C 70 % 1022,7 hPa 0,0 l/m 25,6 km/h (4 Bft) W-NW 290 0 min 0,000 mm 0,0 UV-I 39 W/m -0,6 C -5,9 C 43,5 km/h (6 Bft) 95,12 %
01.12.2016 14:54 4,3 C 71 % 1022,8 hPa 0,0 l/m 19,9 km/h (4 Bft) W 265 0 min 0,000 mm 0,0 UV-I 39 W/m -0,5 C -4,0 C 29,0 km/h (5 Bft) 100,00 %
01.12.2016 14:56 4,3 C 71 % 1022,8 hPa 0,0 l/m 16,1 km/h (3 Bft) SW 227 0 min 0,000 mm 0,0 UV-I 38 W/m -0,5 C -2,3 C 22,5 km/h (4 Bft) 98,11 %
01.12.2016 14:58 4,3 C 71 % 1022,8 hPa 0,0 l/m 23,2 km/h (4 Bft) W 265 0 min 0,000 mm 0,0 UV-I 39 W/m -0,5 C -5,3 C 35,4 km/h (5 Bft) 97,37 %
01.12.2016 15:00 4,3 C 71 % 1022,8 hPa 0,0 l/m 18,2 km/h (3 Bft) W-SW 241 0 min 0,076 mm 0,0 UV-I 40 W/m -0,5 C -3,3 C 25,7 km/h (4 Bft) 98,21 %
01.12.2016 15:02 4,3 C 71 % 1022,8 hPa 0,0 l/m 23,3 km/h (4 Bft) W-SW 257 0 min 0,000 mm 0,0 UV-I 41 W/m -0,5 C -5,3 C 30,6 km/h (5 Bft) 97,37 %
01.12.2016 15:04 4,3 C 70 % 1022,8 hPa 0,0 l/m 25,0 km/h (4 Bft) W-SW 237 0 min 0,000 mm 0,0 UV-I 46 W/m -0,7 C -5,9 C 38,6 km/h (5 Bft) 98,21 %
01.12.2016 15:06 4,3 C 70 % 1022,7 hPa 0,0 l/m 26,9 km/h (4 Bft) W 265 0 min 0,000 mm 0,0 UV-I 53 W/m -0,7 C -6,5 C 38,6 km/h (5 Bft) 100,00 %
01.12.2016 15:08 4,3 C 70 % 1022,7 hPa 0,0 l/m 20,4 km/h (4 Bft) W-SW 245 0 min 0,000 mm 0,0 UV-I 53 W/m -0,7 C -4,2 C 30,6 km/h (5 Bft) 100,00 %
01.12.2016 15:10 4,3 C 71 % 1022,7 hPa 0,0 l/m 22,0 km/h (4 Bft) S-SW 204 0 min 0,000 mm 0,0 UV-I 53 W/m -0,5 C -4,9 C 37,0 km/h (5 Bft) 100,00 %
01.12.2016 15:12 4,3 C 71 % 1022,7 hPa 0,0 l/m 25,7 km/h (4 Bft) W-SW 240 0 min 0,000 mm 0,0 UV-I 52 W/m -0,5 C -6,1 C 37,0 km/h (5 Bft) 100,00 %
01.12.2016 15:14 4,3 C 71 % 1022,7 hPa 0,0 l/m 19,5 km/h (3 Bft) W 259 0 min 0,000 mm 0,0 UV-I 49 W/m -0,5 C -3,9 C 30,6 km/h (5 Bft) 100,00 %
01.12.2016 15:16 4,3 C 71 % 1022,7 hPa 0,0 l/m 24,2 km/h (4 Bft) W-SW 238 0 min 0,000 mm 0,0 UV-I 47 W/m -0,5 C -5,6 C 30,6 km/h (5 Bft) 98,00 %
01.12.2016 15:18 4,3 C 71 % 1022,6 hPa 0,0 l/m 24,9 km/h (4 Bft) W-SW 257 0 min 0,000 mm 0,0 UV-I 44 W/m -0,5 C -5,9 C 35,4 km/h (5 Bft) 100,00 %
01.12.2016 15:20 4,2 C 71 % 1022,5 hPa 0,0 l/m 20,0 km/h (4 Bft) W 259 0 min 0,000 mm 0,0 UV-I 41 W/m -0,6 C -4,2 C 29,0 km/h (5 Bft) 100,00 %
01.12.2016 15:22 4,2 C 71 % 1022,5 hPa 0,0 l/m 20,6 km/h (4 Bft) W 272 0 min 0,000 mm 0,0 UV-I 39 W/m -0,6 C -4,4 C 37,0 km/h (5 Bft) 100,00 %
01.12.2016 15:24 4,2 C 70 % 1022,5 hPa 0,0 l/m 19,2 km/h (3 Bft) SW 233 0 min 0,000 mm 0,0 UV-I 37 W/m -0,8 C -3,9 C 30,6 km/h (5 Bft) 100,00 %
01.12.2016 15:26 4,2 C 70 % 1022,6 hPa 0,0 l/m 25,4 km/h (4 Bft) W-SW 244 0 min 0,000 mm 0,0 UV-I 36 W/m -0,8 C -6,2 C 33,8 km/h (5 Bft) 100,00 %
01.12.2016 15:28 4,2 C 69 % 1022,6 hPa 0,0 l/m 22,7 km/h (4 Bft) W 259 0 min 0,000 mm 0,0 UV-I 33 W/m -1,0 C -5,2 C 30,6 km/h (5 Bft) 100,00 %
01.12.2016 15:30 4,2 C 68 % 1022,5 hPa 0,0 l/m 20,9 km/h (4 Bft) SW 235 0 min 0,000 mm 0,0 UV-I 31 W/m -1,2 C -4,6 C 32,2 km/h (5 Bft) 97,56 %
01.12.2016 15:32 4,2 C 68 % 1022,5 hPa 0,0 l/m 15,3 km/h (3 Bft) W 263 0 min 0,000 mm 0,0 UV-I 29 W/m -1,2 C -2,0 C 27,4 km/h (4 Bft) 100,00 %
01.12.2016 15:34 4,1 C 68 % 1022,5 hPa 0,0 l/m 17,3 km/h (3 Bft) W-SW 258 0 min 0,000 mm 0,0 UV-I 27 W/m -1,3 C -3,2 C 27,4 km/h (4 Bft) 98,21 %
01.12.2016 15:36 4,1 C 68 % 1022,4 hPa 0,0 l/m 21,0 km/h (4 Bft) W-SW 250 0 min 0,000 mm 0,0 UV-I 24 W/m -1,3 C -4,7 C 30,6 km/h (5 Bft) 97,37 %
01.12.2016 15:38 4,1 C 68 % 1022,5 hPa 0,0 l/m 15,3 km/h (3 Bft) SW 231 0 min 0,000 mm 0,0 UV-I 22 W/m -1,3 C -2,2 C 24,1 km/h (4 Bft) 100,00 %
01.12.2016 15:40 4,1 C 67 % 1022,4 hPa 0,0 l/m 17,8 km/h (3 Bft) SW 234 0 min 0,000 mm 0,0 UV-I 19 W/m -1,5 C -3,4 C 24,1 km/h (4 Bft) 100,00 %
01.12.2016 15:42 4,1 C 67 % 1022,4 hPa 0,0 l/m 22,4 km/h (4 Bft) W-SW 243 0 min 0,000 mm 0,0 UV-I 19 W/m -1,5 C -5,3 C 35,4 km/h (5 Bft) 100,00 %
01.12.2016 15:44 4,1 C 67 % 1022,4 hPa 0,0 l/m 18,9 km/h (3 Bft) W 276 0 min 0,000 mm 0,0 UV-I 18 W/m -1,5 C -3,9 C 32,2 km/h (5 Bft) 100,00 %
01.12.2016 15:46 4,0 C 67 % 1022,4 hPa 0,0 l/m 13,6 km/h (3 Bft) S-SW 196 0 min 0,000 mm 0,0 UV-I 15 W/m -1,6 C -1,4 C 19,3 km/h (3 Bft) 100,00 %
01.12.2016 15:48 4,0 C 67 % 1022,3 hPa 0,0 l/m 17,8 km/h (3 Bft) W-SW 248 0 min 0,000 mm 0,0 UV-I 14 W/m -1,6 C -3,5 C 25,7 km/h (4 Bft) 100,00 %
01.12.2016 15:50 4,0 C 66 % 1022,2 hPa 0,0 l/m 23,0 km/h (4 Bft) SW 218 0 min 0,000 mm 0,0 UV-I 14 W/m -1,8 C -5,6 C 32,2 km/h (5 Bft) 100,00 %
01.12.2016 15:52 4,0 C 66 % 1022,2 hPa 0,0 l/m 20,3 km/h (4 Bft) W 264 0 min 0,000 mm 0,0 UV-I 14 W/m -1,8 C -4,6 C 29,0 km/h (5 Bft) 98,11 %
01.12.2016 15:54 4,0 C 66 % 1022,2 hPa 0,0 l/m 19,4 km/h (3 Bft) W-SW 250 0 min 0,000 mm 0,0 UV-I 12 W/m -1,8 C -4,2 C 33,8 km/h (5 Bft) 100,00 %
01.12.2016 15:56 4,0 C 66 % 1022,2 hPa 0,0 l/m 15,4 km/h (3 Bft) W 264 0 min 0,000 mm 0,0 UV-I 12 W/m -1,8 C -2,3 C 22,5 km/h (4 Bft) 97,37 %
01.12.2016 15:58 3,9 C 66 % 1022,3 hPa 0,0 l/m 14,0 km/h (3 Bft) W 269 2 min 0,000 mm 0,0 UV-I 11 W/m -1,9 C -1,7 C 20,9 km/h (4 Bft) 96,30 %
01.12.2016 16:00 3,9 C 66 % 1022,3 hPa 0,0 l/m 13,6 km/h (3 Bft) W-SW 257 2 min 0,000 mm 0,0 UV-I 10 W/m -1,9 C -1,5 C 19,3 km/h (3 Bft) 97,14 %
01.12.2016 16:02 3,9 C 66 % 1022,3 hPa 0,0 l/m 17,2 km/h (3 Bft) W 264 0 min 0,076 mm 0,0 UV-I 9 W/m -1,9 C -3,4 C 24,1 km/h (4 Bft) 96,97 %
01.12.2016 16:04 3,9 C 65 % 1022,1 hPa 0,0 l/m 21,5 km/h (4 Bft) W 261 0 min 0,000 mm 0,0 UV-I 7 W/m -2,1 C -5,2 C 32,2 km/h (5 Bft) 96,43 %
01.12.2016 16:06 3,9 C 66 % 1022,1 hPa 0,0 l/m 21,6 km/h (4 Bft) W-SW 252 0 min 0,000 mm 0,0 UV-I 7 W/m -1,9 C -5,2 C 33,8 km/h (5 Bft) 96,55 %
01.12.2016 16:08 3,9 C 66 % 1022,0 hPa 0,0 l/m 17,4 km/h (3 Bft) SW 235 0 min 0,000 mm 0,0 UV-I 5 W/m -1,9 C -3,5 C 25,7 km/h (4 Bft) 94,87 %
01.12.2016 16:10 3,9 C 65 % 1021,9 hPa 0,0 l/m 16,5 km/h (3 Bft) W-SW 248 0 min 0,000 mm 0,0 UV-I 5 W/m -2,1 C -3,0 C 22,5 km/h (4 Bft) 96,23 %
01.12.2016 16:12 3,9 C 66 % 1021,9 hPa 0,0 l/m 14,0 km/h (3 Bft) W 267 0 min 0,000 mm 0,0 UV-I 5 W/m -1,9 C -1,7 C 20,9 km/h (4 Bft) 97,73 %
01.12.2016 16:14 3,9 C 66 % 1021,9 hPa 0,0 l/m 19,2 km/h (3 Bft) SW 235 0 min 0,000 mm 0,0 UV-I 5 W/m -1,9 C -4,3 C 27,4 km/h (4 Bft) 97,73 %
01.12.2016 16:16 3,9 C 65 % 1021,8 hPa 0,0 l/m 22,1 km/h (4 Bft) W-SW 246 0 min 0,000 mm 0,0 UV-I 3 W/m -2,1 C -5,4 C 33,8 km/h (5 Bft) 94,00 %
01.12.2016 16:18 3,9 C 65 % 1021,8 hPa 0,0 l/m 18,7 km/h (3 Bft) SW 224 0 min 0,000 mm 0,0 UV-I 0 W/m -2,1 C -4,0 C 32,2 km/h (5 Bft) 97,56 %
01.12.2016 16:20 3,9 C 64 % 1021,8 hPa 0,0 l/m 16,6 km/h (3 Bft) W-SW 244 0 min 0,000 mm 0,0 UV-I 0 W/m -2,3 C -3,1 C 29,0 km/h (5 Bft) 98,11 %
01.12.2016 16:22 3,9 C 64 % 1021,8 hPa 0,0 l/m 14,8 km/h (3 Bft) SW 225 0 min 0,000 mm 0,0 UV-I 0 W/m -2,3 C -2,1 C 27,4 km/h (4 Bft) 97,56 %
01.12.2016 16:24 3,9 C 65 % 1021,8 hPa 0,0 l/m 15,7 km/h (3 Bft) W-NW 284 0 min 0,000 mm 0,0 UV-I 0 W/m -2,1 C -2,6 C 24,1 km/h (4 Bft) 94,00 %
01.12.2016 16:26 3,9 C 65 % 1021,7 hPa 0,0 l/m 14,9 km/h (3 Bft) SW 235 0 min 0,000 mm 0,0 UV-I 0 W/m -2,1 C -2,2 C 25,7 km/h (4 Bft) 98,00 %
01.12.2016 16:28 3,9 C 64 % 1021,7 hPa 0,0 l/m 14,4 km/h (3 Bft) SW 226 0 min 0,000 mm 0,0 UV-I 0 W/m -2,3 C -1,9 C 24,1 km/h (4 Bft) 96,00 %
01.12.2016 16:30 3,8 C 64 % 1021,8 hPa 0,0 l/m 15,1 km/h (3 Bft) SW 233 0 min 0,000 mm 0,0 UV-I 0 W/m -2,4 C -2,4 C 22,5 km/h (4 Bft) 100,00 %
01.12.2016 16:32 3,8 C 63 % 1021,9 hPa 0,0 l/m 14,4 km/h (3 Bft) W 268 0 min 0,000 mm 0,0 UV-I 0 W/m -2,6 C -2,1 C 20,9 km/h (4 Bft) 98,11 %
01.12.2016 16:34 3,9 C 63 % 1021,9 hPa 0,0 l/m 19,1 km/h (3 Bft) W 262 0 min 0,000 mm 0,0 UV-I 0 W/m -2,5 C -4,2 C 27,4 km/h (4 Bft) 100,00 %
01.12.2016 16:36 3,9 C 63 % 1021,9 hPa 0,0 l/m 15,4 km/h (3 Bft) W 259 0 min 0,000 mm 0,0 UV-I 0 W/m -2,5 C -2,5 C 25,7 km/h (4 Bft) 98,28 %
01.12.2016 16:38 3,9 C 63 % 1022,1 hPa 0,0 l/m 19,8 km/h (3 Bft) W-SW 247 0 min 0,000 mm 0,0 UV-I 0 W/m -2,5 C -4,5 C 25,7 km/h (4 Bft) 100,00 %
01.12.2016 16:40 3,9 C 63 % 1022,1 hPa 0,0 l/m 13,4 km/h (3 Bft) W-NW 283 0 min 0,000 mm 0,0 UV-I 0 W/m -2,5 C -1,4 C 19,3 km/h (3 Bft) 97,87 %
01.12.2016 16:42 3,9 C 63 % 1022,1 hPa 0,0 l/m 14,6 km/h (3 Bft) SW 233 0 min 0,000 mm 0,0 UV-I 0 W/m -2,5 C -2,0 C 22,5 km/h (4 Bft) 100,00 %
01.12.2016 16:44 3,9 C 63 % 1022,1 hPa 0,0 l/m 18,8 km/h (3 Bft) W-SW 254 0 min 0,000 mm 0,0 UV-I 0 W/m -2,5 C -4,1 C 24,1 km/h (4 Bft) 100,00 %
01.12.2016 16:46 3,9 C 62 % 1022,0 hPa 0,0 l/m 19,4 km/h (3 Bft) W 268 0 min 0,000 mm 0,0 UV-I 0 W/m -2,7 C -4,3 C 29,0 km/h (5 Bft) 100,00 %
01.12.2016 16:48 3,9 C 62 % 1021,9 hPa 0,0 l/m 12,6 km/h (3 Bft) W-SW 256 0 min 0,000 mm 0,0 UV-I 0 W/m -2,7 C -0,9 C 17,7 km/h (3 Bft) 100,00 %
01.12.2016 16:50 3,9 C 63 % 1022,0 hPa 0,0 l/m 10,9 km/h (2 Bft) W-SW 252 0 min 0,000 mm 0,0 UV-I 0 W/m -2,5 C 0,2 C 14,5 km/h (3 Bft) 100,00 %
01.12.2016 16:52 3,9 C 63 % 1022,0 hPa 0,0 l/m 9,9 km/h (2 Bft) W 281 0 min 0,000 mm 0,0 UV-I 0 W/m -2,5 C 0,9 C 16,1 km/h (3 Bft) 96,23 %
01.12.2016 16:54 3,9 C 64 % 1022,0 hPa 0,0 l/m 12,0 km/h (2 Bft) W 260 0 min 0,000 mm 0,0 UV-I 0 W/m -2,3 C -0,5 C 22,5 km/h (4 Bft) 100,00 %
01.12.2016 16:56 3,9 C 62 % 1022,1 hPa 0,0 l/m 16,5 km/h (3 Bft) W-SW 248 0 min 0,000 mm 0,0 UV-I 0 W/m -2,7 C -3,0 C 24,1 km/h (4 Bft) 100,00 %
01.12.2016 16:58 3,9 C 62 % 1022,1 hPa 0,0 l/m 18,9 km/h (3 Bft) W-SW 242 0 min 0,000 mm 0,0 UV-I 0 W/m -2,7 C -4,1 C 29,0 km/h (5 Bft) 100,00 %
01.12.2016 17:00 3,9 C 62 % 1022,1 hPa 0,0 l/m 15,9 km/h (3 Bft) W 260 0 min 0,000 mm 0,0 UV-I 0 W/m -2,7 C -2,7 C 24,1 km/h (4 Bft) 100,00 %
01.12.2016 17:03 3,9 C 62 % 1022,1 hPa 0,0 l/m 15,1 km/h (3 Bft) W-SW 250 0 min 0,051 mm 0,0 UV-I 0 W/m -2,7 C -2,3 C 29,0 km/h (5 Bft) 100,00 %
01.12.2016 17:04 3,9 C 62 % 1022,1 hPa 0,0 l/m 18,7 km/h (3 Bft) W-SW 255 0 min 0,000 mm 0,0 UV-I 0 W/m -2,7 C -4,0 C 22,5 km/h (4 Bft) 100,00 %
01.12.2016 17:06 3,9 C 61 % 1022,0 hPa 0,0 l/m 15,1 km/h (3 Bft) W 264 0 min 0,000 mm 0,0 UV-I 0 W/m -2,9 C -2,3 C 27,4 km/h (4 Bft) 95,74 %
01.12.2016 17:08 3,9 C 60 % 1022,0 hPa 0,0 l/m 17,9 km/h (3 Bft) W 261 0 min 0,000 mm 0,0 UV-I 0 W/m -3,1 C -3,7 C 29,0 km/h (5 Bft) 97,87 %
01.12.2016 17:10 3,9 C 60 % 1022,0 hPa 0,0 l/m 16,6 km/h (3 Bft) W-SW 257 0 min 0,000 mm 0,0 UV-I 0 W/m -3,1 C -3,1 C 27,4 km/h (4 Bft) 100,00 %
01.12.2016 17:12 3,9 C 60 % 1022,0 hPa 0,0 l/m 12,9 km/h (3 Bft) W 260 0 min 0,000 mm 0,0 UV-I 0 W/m -3,1 C -1,1 C 16,1 km/h (3 Bft) 100,00 %
01.12.2016 17:14 3,9 C 60 % 1022,0 hPa 0,0 l/m 13,5 km/h (3 Bft) W 259 0 min 0,000 mm 0,0 UV-I 0 W/m -3,1 C -1,4 C 20,9 km/h (4 Bft) 100,00 %
01.12.2016 17:16 3,9 C 60 % 1022,0 hPa 0,0 l/m 11,5 km/h (2 Bft) W-SW 254 0 min 0,000 mm 0,0 UV-I 0 W/m -3,1 C -0,2 C 16,1 km/h (3 Bft) 97,56 %
01.12.2016 17:18 3,9 C 60 % 1022,0 hPa 0,0 l/m 11,9 km/h (2 Bft) W 259 0 min 0,000 mm 0,0 UV-I 0 W/m -3,1 C -0,4 C 19,3 km/h (3 Bft) 100,00 %
01.12.2016 17:20 3,9 C 60 % 1021,9 hPa 0,0 l/m 12,8 km/h (3 Bft) W-SW 244 0 min 0,000 mm 0,0 UV-I 0 W/m -3,1 C -1,0 C 19,3 km/h (3 Bft) 100,00 %
01.12.2016 17:22 3,8 C 59 % 1021,8 hPa 0,0 l/m 13,9 km/h (3 Bft) W-SW 250 0 min 0,000 mm 0,0 UV-I 0 W/m -3,5 C -1,8 C 19,3 km/h (3 Bft) 100,00 %
01.12.2016 17:24 3,8 C 59 % 1021,9 hPa 0,0 l/m 14,2 km/h (3 Bft) W 259 0 min 0,000 mm 0,0 UV-I 0 W/m -3,5 C -1,9 C 19,3 km/h (3 Bft) 100,00 %
01.12.2016 17:26 3,8 C 60 % 1021,9 hPa 0,0 l/m 12,5 km/h (3 Bft) W-SW 246 0 min 0,000 mm 0,0 UV-I 0 W/m -3,2 C -0,9 C 19,3 km/h (3 Bft) 97,87 %
01.12.2016 17:28 3,8 C 59 % 1021,9 hPa 0,0 l/m 13,6 km/h (3 Bft) W-SW 247 0 min 0,000 mm 0,0 UV-I 0 W/m -3,5 C -1,6 C 20,9 km/h (4 Bft) 100,00 %
01.12.2016 17:30 3,8 C 59 % 1022,0 hPa 0,0 l/m 9,9 km/h (2 Bft) W-SW 244 0 min 0,000 mm 0,0 UV-I 0 W/m -3,5 C 0,8 C 16,1 km/h (3 Bft) 100,00 %
01.12.2016 17:32 3,8 C 60 % 1022,0 hPa 0,0 l/m 11,8 km/h (2 Bft) S-SW 203 0 min 0,000 mm 0,0 UV-I 0 W/m -3,2 C -0,5 C 16,1 km/h (3 Bft) 100,00 %
01.12.2016 17:34 3,8 C 59 % 1021,8 hPa 0,0 l/m 12,3 km/h (3 Bft) W-SW 238 0 min 0,000 mm 0,0 UV-I 0 W/m -3,5 C -0,8 C 16,1 km/h (3 Bft) 100,00 %
01.12.2016 17:36 3,8 C 59 % 1021,8 hPa 0,0 l/m 15,4 km/h (3 Bft) W 274 0 min 0,000 mm 0,0 UV-I 0 W/m -3,5 C -2,6 C 22,5 km/h (4 Bft) 100,00 %
01.12.2016 17:38 3,8 C 59 % 1021,7 hPa 0,0 l/m 12,8 km/h (3 Bft) W-SW 255 0 min 0,000 mm 0,0 UV-I 0 W/m -3,5 C -1,1 C 19,3 km/h (3 Bft) 100,00 %
01.12.2016 17:40 3,8 C 59 % 1021,7 hPa 0,0 l/m 11,2 km/h (2 Bft) SW 233 0 min 0,000 mm 0,0 UV-I 0 W/m -3,5 C -0,1 C 16,1 km/h (3 Bft) 100,00 %
01.12.2016 17:42 3,8 C 59 % 1021,6 hPa 0,0 l/m 14,8 km/h (3 Bft) W-SW 250 0 min 0,000 mm 0,0 UV-I 0 W/m -3,5 C -2,3 C 22,5 km/h (4 Bft) 100,00 %
01.12.2016 17:44 3,8 C 60 % 1021,6 hPa 0,0 l/m 12,7 km/h (3 Bft) SW 234 0 min 0,000 mm 0,0 UV-I 0 W/m -3,2 C -1,1 C 20,9 km/h (4 Bft) 96,55 %
01.12.2016 17:46 3,8 C 59 % 1021,5 hPa 0,0 l/m 16,5 km/h (3 Bft) SW 235 0 min 0,000 mm 0,0 UV-I 0 W/m -3,5 C -3,1 C 27,4 km/h (4 Bft) 100,00 %
01.12.2016 17:48 3,8 C 60 % 1021,4 hPa 0,0 l/m 11,7 km/h (2 Bft) W-SW 252 0 min 0,000 mm 0,0 UV-I 0 W/m -3,2 C -0,4 C 14,5 km/h (3 Bft) 100,00 %
01.12.2016 17:50 3,8 C 60 % 1021,4 hPa 0,0 l/m 15,2 km/h (3 Bft) SW 236 0 min 0,000 mm 0,0 UV-I 0 W/m -3,2 C -2,5 C 22,5 km/h (4 Bft) 100,00 %
01.12.2016 17:52 3,8 C 59 % 1021,3 hPa 0,0 l/m 16,3 km/h (3 Bft) SW 236 0 min 0,000 mm 0,0 UV-I 0 W/m -3,5 C -3,0 C 22,5 km/h (4 Bft) 100,00 %
01.12.2016 17:54 3,8 C 59 % 1021,2 hPa 0,0 l/m 12,1 km/h (2 Bft) SW 236 0 min 0,000 mm 0,0 UV-I 0 W/m -3,5 C -0,7 C 19,3 km/h (3 Bft) 100,00 %
01.12.2016 17:56 3,8 C 59 % 1021,2 hPa 0,0 l/m 13,2 km/h (3 Bft) W-SW 238 0 min 0,000 mm 0,0 UV-I 0 W/m -3,5 C -1,4 C 19,3 km/h (3 Bft) 97,73 %
01.12.2016 17:58 3,8 C 59 % 1021,2 hPa 0,0 l/m 12,6 km/h (3 Bft) W-SW 248 0 min 0,000 mm 0,0 UV-I 0 W/m -3,5 C -1,0 C 17,7 km/h (3 Bft) 100,00 %
01.12.2016 18:00 3,8 C 59 % 1021,2 hPa 0,0 l/m 12,0 km/h (2 Bft) W-SW 237 0 min 0,000 mm 0,0 UV-I 0 W/m -3,5 C -0,6 C 17,7 km/h (3 Bft) 98,11 %
01.12.2016 18:02 3,8 C 59 % 1021,2 hPa 0,0 l/m 12,9 km/h (3 Bft) W-SW 241 0 min 0,051 mm 0,0 UV-I 0 W/m -3,5 C -1,2 C 19,3 km/h (3 Bft) 97,62 %
01.12.2016 18:04 3,8 C 59 % 1021,2 hPa 0,0 l/m 11,1 km/h (2 Bft) W-SW 253 0 min 0,000 mm 0,0 UV-I 0 W/m -3,5 C -0,0 C 17,7 km/h (3 Bft) 97,73 %
01.12.2016 18:06 3,9 C 59 % 1021,2 hPa 0,0 l/m 12,2 km/h (2 Bft) W-SW 238 0 min 0,000 mm 0,0 UV-I 0 W/m -3,4 C -0,6 C 16,1 km/h (3 Bft) 96,43 %
01.12.2016 18:08 3,9 C 59 % 1021,1 hPa 0,0 l/m 13,8 km/h (3 Bft) W-SW 247 0 min 0,000 mm 0,0 UV-I 0 W/m -3,4 C -1,6 C 19,3 km/h (3 Bft) 96,00 %
01.12.2016 18:10 3,9 C 59 % 1021,0 hPa 0,0 l/m 14,1 km/h (3 Bft) SW 228 0 min 0,000 mm 0,0 UV-I 0 W/m -3,4 C -1,8 C 20,9 km/h (4 Bft) 97,37 %
01.12.2016 18:12 3,9 C 59 % 1021,0 hPa 0,0 l/m 13,7 km/h (3 Bft) S-SW 212 0 min 0,000 mm 0,0 UV-I 0 W/m -3,4 C -1,5 C 19,3 km/h (3 Bft) 95,45 %
01.12.2016 18:14 3,9 C 59 % 1021,0 hPa 0,0 l/m 12,6 km/h (3 Bft) W-SW 238 0 min 0,000 mm 0,0 UV-I 0 W/m -3,4 C -0,9 C 20,9 km/h (4 Bft) 96,43 %
01.12.2016 18:16 3,9 C 59 % 1020,9 hPa 0,0 l/m 13,0 km/h (3 Bft) SW 232 0 min 0,000 mm 0,0 UV-I 0 W/m -3,4 C -1,1 C 20,9 km/h (4 Bft) 96,15 %
01.12.2016 18:18 4,0 C 58 % 1020,9 hPa 0,0 l/m 16,7 km/h (3 Bft) SW 226 0 min 0,000 mm 0,0 UV-I 0 W/m -3,5 C -3,0 C 20,9 km/h (4 Bft) 98,59 %
01.12.2016 18:20 4,0 C 58 % 1020,9 hPa 0,0 l/m 13,5 km/h (3 Bft) W 259 0 min 0,000 mm 0,0 UV-I 0 W/m -3,5 C -1,3 C 19,3 km/h (3 Bft) 95,12 %
01.12.2016 18:22 4,0 C 59 % 1020,8 hPa 0,0 l/m 15,0 km/h (3 Bft) S-SW 209 0 min 0,000 mm 0,0 UV-I 0 W/m -3,3 C -2,1 C 25,7 km/h (4 Bft) 95,45 %
01.12.2016 18:24 4,0 C 59 % 1020,9 hPa 0,0 l/m 13,3 km/h (3 Bft) W 273 0 min 0,000 mm 0,0 UV-I 0 W/m -3,3 C -1,2 C 25,7 km/h (4 Bft) 97,87 %
01.12.2016 18:26 4,1 C 59 % 1020,9 hPa 0,0 l/m 13,8 km/h (3 Bft) SW 233 0 min 0,000 mm 0,0 UV-I 0 W/m -3,2 C -1,4 C 19,3 km/h (3 Bft) 96,23 %
01.12.2016 18:28 4,1 C 59 % 1021,0 hPa 0,0 l/m 15,3 km/h (3 Bft) SW 231 0 min 0,000 mm 0,0 UV-I 0 W/m -3,2 C -2,2 C 20,9 km/h (4 Bft) 97,87 %
01.12.2016 18:30 4,1 C 59 % 1020,9 hPa 0,0 l/m 13,4 km/h (3 Bft) W-SW 257 0 min 0,000 mm 0,0 UV-I 0 W/m -3,2 C -1,1 C 20,9 km/h (4 Bft) 97,37 %
01.12.2016 18:32 4,1 C 60 % 1020,9 hPa 0,0 l/m 13,0 km/h (3 Bft) W-SW 242 0 min 0,000 mm 0,0 UV-I 0 W/m -3,0 C -0,9 C 22,5 km/h (4 Bft) 96,23 %
01.12.2016 18:34 4,1 C 59 % 1021,0 hPa 0,0 l/m 18,1 km/h (3 Bft) W-SW 244 0 min 0,000 mm 0,0 UV-I 0 W/m -3,2 C -3,5 C 27,4 km/h (4 Bft) 92,68 %
01.12.2016 18:36 4,2 C 58 % 1021,1 hPa 0,0 l/m 17,8 km/h (3 Bft) W 272 0 min 0,000 mm 0,0 UV-I 0 W/m -3,3 C -3,3 C 32,2 km/h (5 Bft) 96,43 %
01.12.2016 18:38 4,2 C 58 % 1021,1 hPa 0,0 l/m 16,9 km/h (3 Bft) W-SW 245 0 min 0,000 mm 0,0 UV-I 0 W/m -3,3 C -2,8 C 24,1 km/h (4 Bft) 95,74 %
01.12.2016 18:40 4,2 C 57 % 1021,0 hPa 0,0 l/m 17,4 km/h (3 Bft) S-SW 211 0 min 0,000 mm 0,0 UV-I 0 W/m -3,5 C -3,1 C 29,0 km/h (5 Bft) 97,87 %
01.12.2016 18:42 4,3 C 56 % 1021,0 hPa 0,0 l/m 15,5 km/h (3 Bft) SW 231 0 min 0,000 mm 0,0 UV-I 0 W/m -3,7 C -2,0 C 22,5 km/h (4 Bft) 100,00 %
01.12.2016 18:44 4,3 C 56 % 1020,9 hPa 0,0 l/m 16,5 km/h (3 Bft) W-SW 244 0 min 0,000 mm 0,0 UV-I 0 W/m -3,7 C -2,5 C 24,1 km/h (4 Bft) 100,00 %
01.12.2016 18:46 4,3 C 55 % 1020,8 hPa 0,0 l/m 19,6 km/h (3 Bft) W-SW 244 0 min 0,000 mm 0,0 UV-I 0 W/m -3,9 C -3,9 C 30,6 km/h (5 Bft) 97,62 %
01.12.2016 18:48 4,3 C 54 % 1020,9 hPa 0,0 l/m 16,4 km/h (3 Bft) W-SW 257 0 min 0,000 mm 0,0 UV-I 0 W/m -4,2 C -2,5 C 24,1 km/h (4 Bft) 98,11 %
01.12.2016 18:50 4,3 C 55 % 1020,9 hPa 0,0 l/m 17,6 km/h (3 Bft) W-SW 255 0 min 0,000 mm 0,0 UV-I 0 W/m -3,9 C -3,0 C 24,1 km/h (4 Bft) 100,00 %
01.12.2016 18:52 4,3 C 54 % 1020,9 hPa 0,0 l/m 17,3 km/h (3 Bft) W 274 0 min 0,000 mm 0,0 UV-I 0 W/m -4,2 C -2,9 C 25,7 km/h (4 Bft) 100,00 %
01.12.2016 18:54 4,3 C 54 % 1020,9 hPa 0,0 l/m 18,9 km/h (3 Bft) W-SW 238 0 min 0,000 mm 0,0 UV-I 0 W/m -4,2 C -3,6 C 25,7 km/h (4 Bft) 100,00 %
01.12.2016 18:56 4,3 C 55 % 1020,9 hPa 0,0 l/m 15,0 km/h (3 Bft) W-SW 240 0 min 0,000 mm 0,0 UV-I 0 W/m -3,9 C -1,8 C 22,5 km/h (4 Bft) 100,00 %
01.12.2016 18:58 4,3 C 55 % 1020,9 hPa 0,0 l/m 19,1 km/h (3 Bft) W-SW 240 0 min 0,000 mm 0,0 UV-I 0 W/m -3,9 C -3,7 C 27,4 km/h (4 Bft) 100,00 %
01.12.2016 19:00 4,3 C 55 % 1020,8 hPa 0,0 l/m 18,6 km/h (3 Bft) SW 235 0 min 0,000 mm 0,0 UV-I 0 W/m -3,9 C -3,5 C 25,7 km/h (4 Bft) 97,37 %
01.12.2016 19:02 4,3 C 56 % 1020,8 hPa 0,0 l/m 18,8 km/h (3 Bft) SW 236 0 min 0,051 mm 0,0 UV-I 0 W/m -3,7 C -3,6 C 27,4 km/h (4 Bft) 97,56 %
01.12.2016 19:04 4,3 C 56 % 1020,8 hPa 0,0 l/m 19,1 km/h (3 Bft) W 265 0 min 0,000 mm 0,0 UV-I 0 W/m -3,7 C -3,7 C 30,6 km/h (5 Bft) 98,31 %
01.12.2016 19:06 4,3 C 55 % 1020,7 hPa 0,0 l/m 17,9 km/h (3 Bft) W 259 0 min 0,000 mm 0,0 UV-I 0 W/m -3,9 C -3,2 C 24,1 km/h (4 Bft) 100,00 %
01.12.2016 19:08 4,3 C 55 % 1020,6 hPa 0,0 l/m 20,7 km/h (4 Bft) W 259 0 min 0,000 mm 0,0 UV-I 0 W/m -3,9 C -4,4 C 33,8 km/h (5 Bft) 97,87 %
01.12.2016 19:10 4,2 C 55 % 1020,6 hPa 0,0 l/m 24,3 km/h (4 Bft) SW 227 0 min 0,000 mm 0,0 UV-I 0 W/m -4,0 C -5,8 C 30,6 km/h (5 Bft) 100,00 %
01.12.2016 19:12 4,2 C 56 % 1020,6 hPa 0,0 l/m 23,7 km/h (4 Bft) W-SW 250 0 min 0,000 mm 0,0 UV-I 0 W/m -3,8 C -5,6 C 38,6 km/h (5 Bft) 100,00 %
01.12.2016 19:14 4,2 C 55 % 1020,5 hPa 0,0 l/m 24,5 km/h (4 Bft) W-SW 245 0 min 0,000 mm 0,0 UV-I 0 W/m -4,0 C -5,9 C 37,0 km/h (5 Bft) 100,00 %
01.12.2016 19:16 4,2 C 55 % 1020,5 hPa 0,0 l/m 22,0 km/h (4 Bft) W-SW 237 0 min 0,000 mm 0,0 UV-I 0 W/m -4,0 C -5,0 C 29,0 km/h (5 Bft) 100,00 %
01.12.2016 19:18 4,2 C 56 % 1020,5 hPa 0,0 l/m 22,1 km/h (4 Bft) SW 223 0 min 0,000 mm 0,0 UV-I 0 W/m -3,8 C -5,0 C 30,6 km/h (5 Bft) 100,00 %
01.12.2016 19:20 4,2 C 56 % 1020,5 hPa 0,0 l/m 24,1 km/h (4 Bft) W 263 0 min 0,000 mm 0,0 UV-I 0 W/m -3,8 C -5,7 C 35,4 km/h (5 Bft) 100,00 %
01.12.2016 19:22 4,2 C 56 % 1020,5 hPa 0,0 l/m 20,5 km/h (4 Bft) W-SW 247 0 min 0,000 mm 0,0 UV-I 0 W/m -3,8 C -4,4 C 32,2 km/h (5 Bft) 100,00 %
01.12.2016 19:24 4,2 C 55 % 1020,4 hPa 0,0 l/m 24,5 km/h (4 Bft) SW 227 0 min 0,000 mm 0,0 UV-I 0 W/m -4,0 C -5,9 C 35,4 km/h (5 Bft) 100,00 %
01.12.2016 19:26 4,2 C 55 % 1020,3 hPa 0,0 l/m 23,1 km/h (4 Bft) W-SW 248 0 min 0,000 mm 0,0 UV-I 0 W/m -4,0 C -5,4 C 35,4 km/h (5 Bft) 100,00 %
01.12.2016 19:28 4,2 C 55 % 1020,3 hPa 0,0 l/m 22,2 km/h (4 Bft) W-SW 253 0 min 0,000 mm 0,0 UV-I 0 W/m -4,0 C -5,1 C 32,2 km/h (5 Bft) 100,00 %
01.12.2016 19:30 4,1 C 56 % 1020,3 hPa 0,0 l/m 19,0 km/h (3 Bft) W-SW 255 0 min 0,000 mm 0,0 UV-I 0 W/m -3,9 C -3,9 C 33,8 km/h (5 Bft) 100,00 %
01.12.2016 19:32 4,1 C 55 % 1020,2 hPa 0,0 l/m 22,3 km/h (4 Bft) W-SW 245 0 min 0,000 mm 0,0 UV-I 0 W/m -4,1 C -5,2 C 32,2 km/h (5 Bft) 100,00 %
01.12.2016 19:34 4,1 C 56 % 1020,3 hPa 0,0 l/m 17,2 km/h (3 Bft) SW 236 0 min 0,000 mm 0,0 UV-I 0 W/m -3,9 C -3,1 C 24,1 km/h (4 Bft) 100,00 %
01.12.2016 19:36 4,0 C 56 % 1020,3 hPa 0,0 l/m 19,2 km/h (3 Bft) SW 219 0 min 0,000 mm 0,0 UV-I 0 W/m -4,0 C -4,1 C 25,7 km/h (4 Bft) 97,06 %
01.12.2016 19:38 3,9 C 56 % 1020,2 hPa 0,0 l/m 20,1 km/h (4 Bft) SW 221 0 min 0,000 mm 0,0 UV-I 0 W/m -4,1 C -4,6 C 30,6 km/h (5 Bft) 100,00 %
01.12.2016 19:40 3,9 C 56 % 1020,3 hPa 0,0 l/m 16,2 km/h (3 Bft) W 261 0 min 0,000 mm 0,0 UV-I 0 W/m -4,1 C -2,9 C 25,7 km/h (4 Bft) 100,00 %
01.12.2016 19:42 3,9 C 57 % 1020,3 hPa 0,0 l/m 17,5 km/h (3 Bft) W-SW 247 0 min 0,000 mm 0,0 UV-I 0 W/m -3,8 C -3,5 C 30,6 km/h (5 Bft) 100,00 %
01.12.2016 19:44 3,8 C 57 % 1020,3 hPa 0,0 l/m 20,6 km/h (4 Bft) SW 225 0 min 0,000 mm 0,0 UV-I 0 W/m -3,9 C -5,0 C 30,6 km/h (5 Bft) 100,00 %
01.12.2016 19:46 3,8 C 57 % 1020,3 hPa 0,0 l/m 15,2 km/h (3 Bft) W-SW 237 0 min 0,000 mm 0,0 UV-I 0 W/m -3,9 C -2,5 C 22,5 km/h (4 Bft) 100,00 %
01.12.2016 19:48 3,8 C 57 % 1020,4 hPa 0,0 l/m 17,7 km/h (3 Bft) W 281 0 min 0,000 mm 0,0 UV-I 0 W/m -3,9 C -3,7 C 25,7 km/h (4 Bft) 100,00 %
01.12.2016 19:50 3,7 C 58 % 1020,4 hPa 0,0 l/m 17,8 km/h (3 Bft) W-SW 252 0 min 0,000 mm 0,0 UV-I 0 W/m -3,8 C -3,9 C 24,1 km/h (4 Bft) 100,00 %
01.12.2016 19:52 3,7 C 58 % 1020,4 hPa 0,0 l/m 20,3 km/h (4 Bft) SW 217 0 min 0,000 mm 0,0 UV-I 0 W/m -3,8 C -5,0 C 30,6 km/h (5 Bft) 98,00 %
01.12.2016 19:54 3,7 C 58 % 1020,4 hPa 0,0 l/m 20,2 km/h (4 Bft) S-SW 212 0 min 0,000 mm 0,0 UV-I 0 W/m -3,8 C -4,9 C 35,4 km/h (5 Bft) 98,00 %
01.12.2016 19:56 3,6 C 58 % 1020,4 hPa 0,0 l/m 21,4 km/h (4 Bft) SW 227 0 min 0,000 mm 0,0 UV-I 0 W/m -3,9 C -5,5 C 29,0 km/h (5 Bft) 100,00 %
01.12.2016 19:58 3,6 C 59 % 1020,3 hPa 0,0 l/m 21,0 km/h (4 Bft) S-SW 212 0 min 0,000 mm 0,0 UV-I 0 W/m -3,6 C -5,4 C 30,6 km/h (5 Bft) 100,00 %
01.12.2016 20:00 3,6 C 59 % 1020,1 hPa 0,0 l/m 23,2 km/h (4 Bft) W-SW 240 0 min 0,076 mm 0,0 UV-I 0 W/m -3,6 C -6,2 C 29,0 km/h (5 Bft) 97,73 %
01.12.2016 20:02 3,5 C 60 % 1020,1 hPa 0,0 l/m 19,4 km/h (3 Bft) W-SW 240 0 min 0,000 mm 0,0 UV-I 0 W/m -3,5 C -4,9 C 32,2 km/h (5 Bft) 100,00 %
01.12.2016 20:04 3,4 C 60 % 1020,2 hPa 0,0 l/m 22,1 km/h (4 Bft) SW 222 0 min 0,000 mm 0,0 UV-I 0 W/m -3,6 C -6,1 C 30,6 km/h (5 Bft) 96,43 %
01.12.2016 20:06 3,4 C 60 % 1020,1 hPa 0,0 l/m 25,3 km/h (4 Bft) SW 229 0 min 0,000 mm 0,0 UV-I 0 W/m -3,6 C -7,2 C 32,2 km/h (5 Bft) 97,87 %
01.12.2016 20:08 3,3 C 61 % 1020,1 hPa 0,0 l/m 23,7 km/h (4 Bft) W-SW 254 0 min 0,000 mm 0,0 UV-I 0 W/m -3,5 C -6,8 C 32,2 km/h (5 Bft) 100,00 %
01.12.2016 20:10 3,3 C 61 % 1020,1 hPa 0,0 l/m 22,6 km/h (4 Bft) W-SW 246 0 min 0,000 mm 0,0 UV-I 0 W/m -3,5 C -6,4 C 29,0 km/h (5 Bft) 100,00 %
01.12.2016 20:12 3,3 C 61 % 1020,0 hPa 0,0 l/m 19,4 km/h (3 Bft) W-SW 242 0 min 0,000 mm 0,0 UV-I 0 W/m -3,5 C -5,1 C 29,0 km/h (5 Bft) 94,34 %
01.12.2016 20:14 3,2 C 61 % 1019,9 hPa 0,0 l/m 19,9 km/h (4 Bft) SW 232 0 min 0,000 mm 0,0 UV-I 0 W/m -3,6 C -5,5 C 29,0 km/h (5 Bft) 98,21 %
01.12.2016 20:16 3,2 C 62 % 1019,9 hPa 0,0 l/m 27,2 km/h (4 Bft) W-SW 240 0 min 0,000 mm 0,0 UV-I 0 W/m -3,4 C -8,1 C 35,4 km/h (5 Bft) 97,37 %
01.12.2016 20:18 3,2 C 62 % 1019,9 hPa 0,0 l/m 23,7 km/h (4 Bft) W 259 0 min 0,000 mm 0,0 UV-I 0 W/m -3,4 C -6,9 C 33,8 km/h (5 Bft) 98,11 %
01.12.2016 20:20 3,2 C 62 % 1019,8 hPa 0,0 l/m 26,2 km/h (4 Bft) W-SW 244 0 min 0,000 mm 0,0 UV-I 0 W/m -3,4 C -7,8 C 37,0 km/h (5 Bft) 98,00 %
01.12.2016 20:22 3,2 C 62 % 1019,9 hPa 0,0 l/m 22,1 km/h (4 Bft) W-SW 246 0 min 0,000 mm 0,0 UV-I 0 W/m -3,4 C -6,3 C 37,0 km/h (5 Bft) 97,56 %
01.12.2016 20:24 3,2 C 63 % 1019,9 hPa 0,0 l/m 23,2 km/h (4 Bft) W-SW 239 0 min 0,000 mm 0,0 UV-I 0 W/m -3,1 C -6,8 C 38,6 km/h (5 Bft) 96,23 %
01.12.2016 20:26 3,2 C 63 % 1019,8 hPa 0,0 l/m 24,0 km/h (4 Bft) W-SW 244 0 min 0,000 mm 0,0 UV-I 0 W/m -3,1 C -7,0 C 33,8 km/h (5 Bft) 95,12 %
01.12.2016 20:28 3,2 C 63 % 1019,8 hPa 0,0 l/m 20,7 km/h (4 Bft) W-SW 239 0 min 0,000 mm 0,0 UV-I 0 W/m -3,1 C -5,8 C 32,2 km/h (5 Bft) 98,11 %
01.12.2016 20:30 3,2 C 63 % 1019,9 hPa 0,0 l/m 20,5 km/h (4 Bft) SW 222 0 min 0,000 mm 0,0 UV-I 0 W/m -3,1 C -5,7 C 29,0 km/h (5 Bft) 97,56 %
01.12.2016 20:32 3,2 C 64 % 1019,8 hPa 0,0 l/m 23,4 km/h (4 Bft) SW 229 0 min 0,000 mm 0,0 UV-I 0 W/m -2,9 C -6,8 C 32,2 km/h (5 Bft) 97,73 %
01.12.2016 20:34 3,3 C 64 % 1019,8 hPa 0,0 l/m 22,1 km/h (4 Bft) S-SW 209 0 min 0,000 mm 0,0 UV-I 0 W/m -2,8 C -6,2 C 33,8 km/h (5 Bft) 98,11 %
01.12.2016 20:36 3,3 C 65 % 1019,9 hPa 0,0 l/m 21,3 km/h (4 Bft) SW 227 0 min 0,000 mm 0,0 UV-I 0 W/m -2,6 C -5,9 C 30,6 km/h (5 Bft) 97,87 %
01.12.2016 20:38 3,3 C 65 % 1019,9 hPa 0,0 l/m 20,8 km/h (4 Bft) S-SW 211 0 min 0,000 mm 0,0 UV-I 0 W/m -2,6 C -5,7 C 27,4 km/h (4 Bft) 98,00 %
01.12.2016 20:40 3,3 C 66 % 1019,8 hPa 0,0 l/m 21,2 km/h (4 Bft) W-SW 252 0 min 0,000 mm 0,0 UV-I 0 W/m -2,4 C -5,9 C 29,0 km/h (5 Bft) 93,62 %
01.12.2016 20:42 3,4 C 66 % 1019,9 hPa 0,0 l/m 15,0 km/h (3 Bft) SW 215 0 min 0,000 mm 0,0 UV-I 0 W/m -2,3 C -2,9 C 19,3 km/h (3 Bft) 97,56 %
01.12.2016 20:44 3,4 C 67 % 1019,9 hPa 0,0 l/m 17,2 km/h (3 Bft) W 265 0 min 0,000 mm 0,0 UV-I 0 W/m -2,1 C -4,0 C 30,6 km/h (5 Bft) 97,62 %
01.12.2016 20:46 3,4 C 67 % 1020,0 hPa 0,0 l/m 19,6 km/h (3 Bft) W-SW 247 0 min 0,000 mm 0,0 UV-I 0 W/m -2,1 C -5,1 C 29,0 km/h (5 Bft) 98,21 %
01.12.2016 20:48 3,5 C 67 % 1020,0 hPa 0,0 l/m 19,8 km/h (3 Bft) W-SW 248 0 min 0,000 mm 0,0 UV-I 0 W/m -2,0 C -5,0 C 33,8 km/h (5 Bft) 95,45 %
01.12.2016 20:50 3,6 C 68 % 1020,0 hPa 0,0 l/m 20,6 km/h (4 Bft) S-SW 209 0 min 0,000 mm 0,0 UV-I 0 W/m -1,7 C -5,2 C 33,8 km/h (5 Bft) 100,00 %
01.12.2016 20:52 3,6 C 68 % 1019,9 hPa 0,0 l/m 18,2 km/h (3 Bft) W-SW 254 0 min 0,000 mm 0,0 UV-I 0 W/m -1,7 C -4,2 C 27,4 km/h (4 Bft) 98,00 %
01.12.2016 20:54 3,6 C 69 % 1019,9 hPa 0,0 l/m 14,6 km/h (3 Bft) W-SW 253 0 min 0,000 mm 0,0 UV-I 0 W/m -1,5 C -2,4 C 19,3 km/h (3 Bft) 100,00 %
01.12.2016 20:56 3,6 C 69 % 1019,9 hPa 0,0 l/m 15,8 km/h (3 Bft) W-SW 248 0 min 0,000 mm 0,0 UV-I 0 W/m -1,5 C -3,0 C 22,5 km/h (4 Bft) 100,00 %
01.12.2016 20:58 3,6 C 70 % 1019,9 hPa 0,0 l/m 19,8 km/h (3 Bft) W-SW 250 0 min 0,000 mm 0,0 UV-I 0 W/m -1,3 C -4,9 C 25,7 km/h (4 Bft) 100,00 %
01.12.2016 21:00 3,6 C 70 % 1019,9 hPa 0,0 l/m 17,7 km/h (3 Bft) W-SW 251 0 min 0,000 mm 0,0 UV-I 0 W/m -1,3 C -4,0 C 24,1 km/h (4 Bft) 100,00 %
01.12.2016 21:02 3,7 C 71 % 1019,9 hPa 0,0 l/m 21,8 km/h (4 Bft) W-SW 253 0 min 0,051 mm 0,0 UV-I 0 W/m -1,1 C -5,6 C 37,0 km/h (5 Bft) 97,56 %
01.12.2016 21:04 3,7 C 72 % 1019,9 hPa 0,0 l/m 20,2 km/h (4 Bft) W-SW 254 0 min 0,000 mm 0,0 UV-I 0 W/m -0,9 C -4,9 C 29,0 km/h (5 Bft) 100,00 %
01.12.2016 21:06 3,8 C 72 % 1019,9 hPa 0,0 l/m 17,6 km/h (3 Bft) W-NW 290 0 min 0,000 mm 0,0 UV-I 0 W/m -0,8 C -3,7 C 27,4 km/h (4 Bft) 100,00 %
01.12.2016 21:08 3,8 C 72 % 1019,9 hPa 0,0 l/m 19,9 km/h (4 Bft) W-SW 242 0 min 0,000 mm 0,0 UV-I 0 W/m -0,8 C -4,7 C 38,6 km/h (5 Bft) 100,00 %
01.12.2016 21:10 3,8 C 72 % 1019,9 hPa 0,0 l/m 17,5 km/h (3 Bft) W 269 0 min 0,000 mm 0,0 UV-I 0 W/m -0,8 C -3,6 C 25,7 km/h (4 Bft) 100,00 %
01.12.2016 21:12 3,8 C 72 % 1019,9 hPa 0,0 l/m 21,2 km/h (4 Bft) W-SW 252 0 min 0,000 mm 0,0 UV-I 0 W/m -0,8 C -5,2 C 32,2 km/h (5 Bft) 98,21 %
01.12.2016 21:14 3,9 C 72 % 1019,9 hPa 0,0 l/m 19,6 km/h (3 Bft) W-SW 250 0 min 0,000 mm 0,0 UV-I 0 W/m -0,7 C -4,4 C 27,4 km/h (4 Bft) 100,00 %
01.12.2016 21:16 3,9 C 72 % 1020,0 hPa 0,0 l/m 16,3 km/h (3 Bft) W-SW 241 0 min 0,000 mm 0,0 UV-I 0 W/m -0,7 C -2,9 C 27,4 km/h (4 Bft) 100,00 %
01.12.2016 21:18 3,9 C 72 % 1020,0 hPa 0,0 l/m 23,2 km/h (4 Bft) W-SW 252 0 min 0,000 mm 0,0 UV-I 0 W/m -0,7 C -5,8 C 29,0 km/h (5 Bft) 100,00 %
01.12.2016 21:20 3,9 C 72 % 1019,9 hPa 0,0 l/m 18,5 km/h (3 Bft) W-SW 250 0 min 0,000 mm 0,0 UV-I 0 W/m -0,7 C -4,0 C 32,2 km/h (5 Bft) 97,87 %
01.12.2016 21:22 3,9 C 72 % 1019,9 hPa 0,0 l/m 20,3 km/h (4 Bft) W 262 0 min 0,000 mm 0,0 UV-I 0 W/m -0,7 C -4,7 C 29,0 km/h (5 Bft) 100,00 %
01.12.2016 21:24 3,9 C 72 % 1019,9 hPa 0,0 l/m 21,9 km/h (4 Bft) W-SW 255 0 min 0,000 mm 0,0 UV-I 0 W/m -0,7 C -5,3 C 30,6 km/h (5 Bft) 100,00 %
01.12.2016 21:26 3,9 C 73 % 1019,9 hPa 0,0 l/m 17,5 km/h (3 Bft) W-SW 242 0 min 0,000 mm 0,0 UV-I 0 W/m -0,5 C -3,5 C 24,1 km/h (4 Bft) 100,00 %
01.12.2016 21:28 3,8 C 73 % 1019,8 hPa 0,0 l/m 21,1 km/h (4 Bft) W-SW 250 0 min 0,000 mm 0,0 UV-I 0 W/m -0,6 C -5,2 C 30,6 km/h (5 Bft) 96,23 %
01.12.2016 21:30 3,8 C 73 % 1019,8 hPa 0,0 l/m 27,0 km/h (4 Bft) W 279 0 min 0,000 mm 0,0 UV-I 0 W/m -0,6 C -7,2 C 40,2 km/h (6 Bft) 100,00 %
01.12.2016 21:32 3,8 C 73 % 1019,7 hPa 0,0 l/m 19,3 km/h (3 Bft) W-SW 257 0 min 0,000 mm 0,0 UV-I 0 W/m -0,6 C -4,4 C 29,0 km/h (5 Bft) 100,00 %
01.12.2016 21:34 3,8 C 73 % 1019,6 hPa 0,0 l/m 20,3 km/h (4 Bft) W 264 0 min 0,000 mm 0,0 UV-I 0 W/m -0,6 C -4,8 C 32,2 km/h (5 Bft) 95,74 %
01.12.2016 21:36 3,8 C 73 % 1019,7 hPa 0,0 l/m 22,1 km/h (4 Bft) W 267 0 min 0,000 mm 0,0 UV-I 0 W/m -0,6 C -5,5 C 35,4 km/h (5 Bft) 98,00 %
01.12.2016 21:38 3,8 C 73 % 1019,7 hPa 0,0 l/m 18,0 km/h (3 Bft) W-SW 237 0 min 0,000 mm 0,0 UV-I 0 W/m -0,6 C -3,9 C 27,4 km/h (4 Bft) 100,00 %
01.12.2016 21:40 3,8 C 73 % 1019,7 hPa 0,0 l/m 16,4 km/h (3 Bft) W 266 0 min 0,000 mm 0,0 UV-I 0 W/m -0,6 C -3,1 C 22,5 km/h (4 Bft) 98,21 %
01.12.2016 21:42 3,8 C 74 % 1019,7 hPa 0,0 l/m 17,2 km/h (3 Bft) W 259 0 min 0,000 mm 0,0 UV-I 0 W/m -0,4 C -3,5 C 25,7 km/h (4 Bft) 100,00 %
01.12.2016 21:44 3,7 C 74 % 1019,7 hPa 0,0 l/m 22,2 km/h (4 Bft) SW 217 0 min 0,000 mm 0,0 UV-I 0 W/m -0,5 C -5,7 C 48,3 km/h (6 Bft) 100,00 %
01.12.2016 21:46 3,7 C 74 % 1019,7 hPa 0,0 l/m 20,5 km/h (4 Bft) W-SW 247 0 min 0,000 mm 0,0 UV-I 0 W/m -0,5 C -5,1 C 38,6 km/h (5 Bft) 97,37 %
01.12.2016 21:48 3,7 C 74 % 1019,6 hPa 0,0 l/m 23,8 km/h (4 Bft) W 259 0 min 0,000 mm 0,0 UV-I 0 W/m -0,5 C -6,3 C 35,4 km/h (5 Bft) 100,00 %
01.12.2016 21:50 3,7 C 74 % 1019,7 hPa 0,0 l/m 18,0 km/h (3 Bft) W-SW 257 0 min 0,000 mm 0,0 UV-I 0 W/m -0,5 C -4,0 C 29,0 km/h (5 Bft) 100,00 %
01.12.2016 21:52 3,7 C 74 % 1019,7 hPa 0,0 l/m 20,0 km/h (4 Bft) SW 225 0 min 0,000 mm 0,0 UV-I 0 W/m -0,5 C -4,9 C 29,0 km/h (5 Bft) 100,00 %
01.12.2016 21:54 3,7 C 74 % 1019,7 hPa 0,0 l/m 20,3 km/h (4 Bft) W-SW 252 0 min 0,000 mm 0,0 UV-I 0 W/m -0,5 C -5,0 C 25,7 km/h (4 Bft) 97,37 %
01.12.2016 21:56 3,6 C 74 % 1019,7 hPa 0,0 l/m 16,8 km/h (3 Bft) W-SW 237 0 min 0,000 mm 0,0 UV-I 0 W/m -0,6 C -3,5 C 22,5 km/h (4 Bft) 98,11 %
01.12.2016 21:58 3,6 C 74 % 1019,7 hPa 0,0 l/m 20,3 km/h (4 Bft) W-SW 243 0 min 0,000 mm 0,0 UV-I 0 W/m -0,6 C -5,1 C 30,6 km/h (5 Bft) 100,00 %
01.12.2016 22:00 3,5 C 75 % 1019,6 hPa 0,0 l/m 18,8 km/h (3 Bft) W-SW 257 0 min 0,051 mm 0,0 UV-I 0 W/m -0,5 C -4,6 C 29,0 km/h (5 Bft) 100,00 %
01.12.2016 22:02 3,5 C 75 % 1019,6 hPa 0,0 l/m 15,6 km/h (3 Bft) W-SW 256 0 min 0,000 mm 0,0 UV-I 0 W/m -0,5 C -3,1 C 24,1 km/h (4 Bft) 100,00 %
01.12.2016 22:04 3,4 C 75 % 1019,6 hPa 0,0 l/m 16,0 km/h (3 Bft) SW 214 0 min 0,000 mm 0,0 UV-I 0 W/m -0,6 C -3,4 C 24,1 km/h (4 Bft) 100,00 %
01.12.2016 22:06 3,3 C 75 % 1019,6 hPa 0,0 l/m 15,6 km/h (3 Bft) S-SW 203 0 min 0,000 mm 0,0 UV-I 0 W/m -0,7 C -3,3 C 22,5 km/h (4 Bft) 97,92 %
01.12.2016 22:08 3,2 C 76 % 1019,5 hPa 0,0 l/m 15,7 km/h (3 Bft) SW 229 0 min 0,000 mm 0,0 UV-I 0 W/m -0,6 C -3,5 C 29,0 km/h (5 Bft) 100,00 %
01.12.2016 22:10 3,1 C 76 % 1019,6 hPa 0,0 l/m 13,9 km/h (3 Bft) SW 236 0 min 0,000 mm 0,0 UV-I 0 W/m -0,7 C -2,6 C 20,9 km/h (4 Bft) 100,00 %
01.12.2016 22:12 2,9 C 76 % 1019,5 hPa 0,0 l/m 15,4 km/h (3 Bft) S 190 0 min 0,000 mm 0,0 UV-I 0 W/m -0,9 C -3,7 C 25,7 km/h (4 Bft) 100,00 %
01.12.2016 22:14 2,8 C 76 % 1019,5 hPa 0,0 l/m 18,4 km/h (3 Bft) SW 224 0 min 0,000 mm 0,0 UV-I 0 W/m -1,0 C -5,3 C 29,0 km/h (5 Bft) 97,73 %
01.12.2016 22:16 2,7 C 75 % 1019,5 hPa 0,0 l/m 17,2 km/h (3 Bft) W-SW 239 0 min 0,000 mm 0,0 UV-I 0 W/m -1,3 C -4,9 C 29,0 km/h (5 Bft) 100,00 %
01.12.2016 22:18 2,6 C 75 % 1019,5 hPa 0,0 l/m 16,8 km/h (3 Bft) SW 231 0 min 0,000 mm 0,0 UV-I 0 W/m -1,4 C -4,8 C 24,1 km/h (4 Bft) 98,21 %
01.12.2016 22:20 2,5 C 76 % 1019,5 hPa 0,0 l/m 15,7 km/h (3 Bft) SW 221 0 min 0,000 mm 0,0 UV-I 0 W/m -1,3 C -4,3 C 29,0 km/h (5 Bft) 97,37 %
01.12.2016 22:22 2,4 C 76 % 1019,6 hPa 0,0 l/m 16,4 km/h (3 Bft) S-SW 204 0 min 0,000 mm 0,0 UV-I 0 W/m -1,4 C -4,8 C 22,5 km/h (4 Bft) 98,31 %
01.12.2016 22:24 2,4 C 76 % 1019,5 hPa 0,0 l/m 19,4 km/h (3 Bft) W-SW 244 0 min 0,000 mm 0,0 UV-I 0 W/m -1,4 C -6,3 C 25,7 km/h (4 Bft) 97,56 %
01.12.2016 22:26 2,3 C 76 % 1019,5 hPa 0,0 l/m 23,3 km/h (4 Bft) SW 236 0 min 0,000 mm 0,0 UV-I 0 W/m -1,5 C -8,0 C 33,8 km/h (5 Bft) 96,23 %
01.12.2016 22:28 2,3 C 76 % 1019,5 hPa 0,0 l/m 18,4 km/h (3 Bft) W-SW 244 0 min 0,000 mm 0,0 UV-I 0 W/m -1,5 C -5,9 C 27,4 km/h (4 Bft) 97,56 %
01.12.2016 22:30 2,4 C 76 % 1019,4 hPa 0,0 l/m 15,8 km/h (3 Bft) S-SW 200 0 min 0,000 mm 0,0 UV-I 0 W/m -1,4 C -4,5 C 25,7 km/h (4 Bft) 98,11 %
01.12.2016 22:32 2,4 C 76 % 1019,4 hPa 0,0 l/m 19,8 km/h (3 Bft) SW 234 0 min 0,000 mm 0,0 UV-I 0 W/m -1,4 C -6,4 C 25,7 km/h (4 Bft) 97,37 %
01.12.2016 22:34 2,4 C 76 % 1019,4 hPa 0,0 l/m 20,7 km/h (4 Bft) W-SW 241 0 min 0,000 mm 0,0 UV-I 0 W/m -1,4 C -6,8 C 29,0 km/h (5 Bft) 98,00 %
01.12.2016 22:36 2,4 C 76 % 1019,5 hPa 0,0 l/m 20,2 km/h (4 Bft) W-SW 253 0 min 0,000 mm 0,0 UV-I 0 W/m -1,4 C -6,6 C 30,6 km/h (5 Bft) 95,45 %
01.12.2016 22:38 2,4 C 76 % 1019,5 hPa 0,0 l/m 21,0 km/h (4 Bft) W-SW 238 0 min 0,000 mm 0,0 UV-I 0 W/m -1,4 C -7,0 C 30,6 km/h (5 Bft) 97,62 %
01.12.2016 22:40 2,4 C 76 % 1019,5 hPa 0,0 l/m 17,3 km/h (3 Bft) W-SW 252 0 min 0,000 mm 0,0 UV-I 0 W/m -1,4 C -5,3 C 25,7 km/h (4 Bft) 98,33 %
01.12.2016 22:42 2,5 C 76 % 1019,5 hPa 0,0 l/m 20,2 km/h (4 Bft) W-SW 239 0 min 0,000 mm 0,0 UV-I 0 W/m -1,3 C -6,5 C 29,0 km/h (5 Bft) 97,44 %
01.12.2016 22:44 2,5 C 76 % 1019,5 hPa 0,0 l/m 19,9 km/h (4 Bft) SW 224 0 min 0,000 mm 0,0 UV-I 0 W/m -1,3 C -6,4 C 29,0 km/h (5 Bft) 94,55 %
01.12.2016 22:46 2,6 C 76 % 1019,5 hPa 0,0 l/m 19,3 km/h (3 Bft) W-SW 244 0 min 0,000 mm 0,0 UV-I 0 W/m -1,2 C -6,0 C 29,0 km/h (5 Bft) 97,44 %
01.12.2016 22:48 2,6 C 76 % 1019,5 hPa 0,0 l/m 20,2 km/h (4 Bft) W 261 0 min 0,000 mm 0,0 UV-I 0 W/m -1,2 C -6,4 C 27,4 km/h (4 Bft) 96,23 %
01.12.2016 22:50 2,6 C 76 % 1019,5 hPa 0,0 l/m 20,4 km/h (4 Bft) SW 224 0 min 0,000 mm 0,0 UV-I 0 W/m -1,2 C -6,4 C 27,4 km/h (4 Bft) 97,87 %
01.12.2016 22:52 2,6 C 76 % 1019,5 hPa 0,0 l/m 18,2 km/h (3 Bft) W-SW 243 0 min 0,000 mm 0,0 UV-I 0 W/m -1,2 C -5,5 C 24,1 km/h (4 Bft) 97,73 %
01.12.2016 22:54 2,6 C 76 % 1019,5 hPa 0,0 l/m 20,6 km/h (4 Bft) W-SW 240 0 min 0,000 mm 0,0 UV-I 0 W/m -1,2 C -6,5 C 30,6 km/h (5 Bft) 96,15 %
01.12.2016 22:56 2,6 C 76 % 1019,5 hPa 0,0 l/m 21,8 km/h (4 Bft) W-SW 250 0 min 0,000 mm 0,0 UV-I 0 W/m -1,2 C -7,0 C 32,2 km/h (5 Bft) 98,46 %
01.12.2016 22:58 2,6 C 76 % 1019,5 hPa 0,0 l/m 21,2 km/h (4 Bft) W-SW 244 0 min 0,000 mm 0,0 UV-I 0 W/m -1,2 C -6,8 C 29,0 km/h (5 Bft) 95,45 %
01.12.2016 23:00 2,7 C 76 % 1019,5 hPa 0,0 l/m 18,4 km/h (3 Bft) W-SW 242 0 min 0,025 mm 0,0 UV-I 0 W/m -1,1 C -5,4 C 32,2 km/h (5 Bft) 100,00 %
01.12.2016 23:02 2,7 C 76 % 1019,5 hPa 0,0 l/m 18,8 km/h (3 Bft) W-SW 241 0 min 0,000 mm 0,0 UV-I 0 W/m -1,1 C -5,6 C 27,4 km/h (4 Bft) 100,00 %
01.12.2016 23:04 2,6 C 76 % 1019,5 hPa 0,0 l/m 20,3 km/h (4 Bft) W-SW 242 0 min 0,000 mm 0,0 UV-I 0 W/m -1,2 C -6,4 C 30,6 km/h (5 Bft) 100,00 %
01.12.2016 23:06 2,6 C 77 % 1019,4 hPa 0,0 l/m 18,2 km/h (3 Bft) W-SW 257 0 min 0,000 mm 0,0 UV-I 0 W/m -1,0 C -5,5 C 27,4 km/h (4 Bft) 95,92 %
01.12.2016 23:08 2,6 C 77 % 1019,4 hPa 0,0 l/m 20,1 km/h (4 Bft) SW 234 0 min 0,000 mm 0,0 UV-I 0 W/m -1,0 C -6,3 C 32,2 km/h (5 Bft) 100,00 %
01.12.2016 23:10 2,7 C 77 % 1019,4 hPa 0,0 l/m 24,0 km/h (4 Bft) SW 219 0 min 0,000 mm 0,0 UV-I 0 W/m -0,9 C -7,7 C 30,6 km/h (5 Bft) 100,00 %
01.12.2016 23:12 2,7 C 77 % 1019,4 hPa 0,0 l/m 22,3 km/h (4 Bft) SW 225 0 min 0,000 mm 0,0 UV-I 0 W/m -0,9 C -7,1 C 30,6 km/h (5 Bft) 100,00 %
01.12.2016 23:14 2,7 C 77 % 1019,4 hPa 0,0 l/m 23,7 km/h (4 Bft) SW 216 0 min 0,000 mm 0,0 UV-I 0 W/m -0,9 C -7,6 C 33,8 km/h (5 Bft) 100,00 %
01.12.2016 23:16 2,7 C 77 % 1019,3 hPa 0,0 l/m 20,4 km/h (4 Bft) SW 223 0 min 0,000 mm 0,0 UV-I 0 W/m -0,9 C -6,3 C 35,4 km/h (5 Bft) 100,00 %
01.12.2016 23:18 2,7 C 77 % 1019,3 hPa 0,0 l/m 24,4 km/h (4 Bft) SW 228 0 min 0,000 mm 0,0 UV-I 0 W/m -0,9 C -7,9 C 33,8 km/h (5 Bft) 100,00 %
01.12.2016 23:20 2,7 C 77 % 1019,3 hPa 0,0 l/m 22,5 km/h (4 Bft) W-SW 238 0 min 0,000 mm 0,0 UV-I 0 W/m -0,9 C -7,2 C 32,2 km/h (5 Bft) 95,74 %
01.12.2016 23:22 2,7 C 77 % 1019,4 hPa 0,0 l/m 21,8 km/h (4 Bft) SW 233 0 min 0,000 mm 0,0 UV-I 0 W/m -0,9 C -6,9 C 30,6 km/h (5 Bft) 97,22 %
01.12.2016 23:24 2,7 C 77 % 1019,3 hPa 0,0 l/m 23,0 km/h (4 Bft) SW 235 0 min 0,000 mm 0,0 UV-I 0 W/m -0,9 C -7,3 C 33,8 km/h (5 Bft) 100,00 %
01.12.2016 23:26 2,7 C 77 % 1019,3 hPa 0,0 l/m 21,1 km/h (4 Bft) SW 220 0 min 0,000 mm 0,0 UV-I 0 W/m -0,9 C -6,6 C 30,6 km/h (5 Bft) 100,00 %
01.12.2016 23:28 2,8 C 77 % 1019,3 hPa 0,0 l/m 23,8 km/h (4 Bft) SW 231 0 min 0,000 mm 0,0 UV-I 0 W/m -0,8 C -7,5 C 35,4 km/h (5 Bft) 100,00 %
01.12.2016 23:30 2,8 C 77 % 1019,3 hPa 0,0 l/m 19,8 km/h (3 Bft) SW 228 0 min 0,000 mm 0,0 UV-I 0 W/m -0,8 C -5,9 C 29,0 km/h (5 Bft) 100,00 %
01.12.2016 23:32 2,8 C 77 % 1019,2 hPa 0,0 l/m 26,3 km/h (4 Bft) SW 229 0 min 0,000 mm 0,0 UV-I 0 W/m -0,8 C -8,4 C 40,2 km/h (6 Bft) 100,00 %
01.12.2016 23:34 2,8 C 77 % 1019,1 hPa 0,0 l/m 23,2 km/h (4 Bft) W-SW 241 0 min 0,000 mm 0,0 UV-I 0 W/m -0,8 C -7,3 C 33,8 km/h (5 Bft) 97,87 %
01.12.2016 23:36 2,8 C 77 % 1019,1 hPa 0,0 l/m 23,7 km/h (4 Bft) SW 218 0 min 0,000 mm 0,0 UV-I 0 W/m -0,8 C -7,5 C 38,6 km/h (5 Bft) 98,11 %
01.12.2016 23:38 2,9 C 77 % 1019,2 hPa 0,0 l/m 23,3 km/h (4 Bft) S-SW 202 0 min 0,000 mm 0,0 UV-I 0 W/m -0,7 C -7,2 C 37,0 km/h (5 Bft) 100,00 %
01.12.2016 23:40 2,9 C 78 % 1019,2 hPa 0,0 l/m 25,7 km/h (4 Bft) W-SW 241 0 min 0,000 mm 0,0 UV-I 0 W/m -0,5 C -8,0 C 33,8 km/h (5 Bft) 100,00 %
01.12.2016 23:42 2,9 C 78 % 1019,2 hPa 0,0 l/m 25,8 km/h (4 Bft) SW 229 0 min 0,000 mm 0,0 UV-I 0 W/m -0,5 C -8,1 C 40,2 km/h (6 Bft) 100,00 %
01.12.2016 23:44 2,9 C 78 % 1019,2 hPa 0,0 l/m 20,9 km/h (4 Bft) SW 219 0 min 0,000 mm 0,0 UV-I 0 W/m -0,5 C -6,3 C 32,2 km/h (5 Bft) 98,00 %
01.12.2016 23:46 2,9 C 78 % 1019,2 hPa 0,0 l/m 21,2 km/h (4 Bft) S-SW 203 0 min 0,000 mm 0,0 UV-I 0 W/m -0,5 C -6,4 C 30,6 km/h (5 Bft) 100,00 %
01.12.2016 23:48 2,9 C 78 % 1019,1 hPa 0,0 l/m 23,1 km/h (4 Bft) W-SW 250 0 min 0,000 mm 0,0 UV-I 0 W/m -0,5 C -7,1 C 37,0 km/h (5 Bft) 100,00 %
01.12.2016 23:50 2,9 C 78 % 1019,1 hPa 0,0 l/m 25,1 km/h (4 Bft) SW 218 0 min 0,000 mm 0,0 UV-I 0 W/m -0,5 C -7,8 C 37,0 km/h (5 Bft) 100,00 %
01.12.2016 23:52 2,9 C 78 % 1019,0 hPa 0,0 l/m 20,2 km/h (4 Bft) SW 234 0 min 0,000 mm 0,0 UV-I 0 W/m -0,5 C -6,0 C 38,6 km/h (5 Bft) 96,43 %
01.12.2016 23:54 2,9 C 78 % 1019,0 hPa 0,0 l/m 24,9 km/h (4 Bft) SW 225 0 min 0,000 mm 0,0 UV-I 0 W/m -0,5 C -7,8 C 32,2 km/h (5 Bft) 100,00 %
01.12.2016 23:56 2,9 C 79 % 1019,0 hPa 0,0 l/m 26,9 km/h (4 Bft) SW 227 0 min 0,000 mm 0,0 UV-I 0 W/m -0,4 C -8,4 C 38,6 km/h (5 Bft) 100,00 %
01.12.2016 23:58 2,9 C 79 % 1018,9 hPa 0,0 l/m 21,9 km/h (4 Bft) SW 227 0 min 0,000 mm 0,0 UV-I 0 W/m -0,4 C -6,7 C 38,6 km/h (5 Bft) 100,00 %
_ Min-Zeit 22:26 11:58 23:58 - 04:08 - - - - - - 11:58 23:56 04:08 03:26
Minimum _ 2,3 C 43 % 1018,9 hPa - 4,2 km/h (1 Bft) - - - - - - -6,6 C -8,4 C 6,4 km/h (2 Bft) 90,91 %
_ Max-Zeit 11:50 23:56 01:06 13:06 12:14 - - 15:58 13:00 00:00 12:10 23:56 05:40 12:10 00:00
Maximum _ 4,9 C 79 % 1029,2 hPa 0,2 l/m 30,5 km/h
SW (5 Bft)
- - 2 min 0,152 mm 0,0 UV-I 135 W/m -0,4 C 2,9 C 48,3 km/h
W-SW (6 Bft)
100,00 %
Durchschnitt _ 3,5 C 64 % 1024,4 hPa #0,2 l/m 16,4 km/h (3 Bft) W-SW - #4 min. #1,397 mm 0,0 UV-I 55 W/m -2,8 C -3,1 C 24,8 km/h (4 Bft) 98,60 %